GFSWCAN_850_temp_000.txt.gz
Temp
5 6 6 6 6 7 7 7 7 7 7 7 8 8 8 8 8 8 8 9 9 9 10 10 11 11 12 12 11 12 11 11 7 6 6 7 7 9 10 11 10 10 8 7 6 7 8 14 13 8 10 10 9 7
5 6 6 6 6 6 7 7 7 7 7 7 7 8 7 7 7 7 8 8 8 8 9 9 10 10 10 11 11 11 10 11 9 8 6 6 6 6 5 7 11 9 10 10 10 10 13 13 12 12 10 9 8 7
5 5 5 5 6 6 6 7 7 7 7 7 7 7 7 7 7 7 7 7 7 7 7 7 10 10 9 10 9 9 9 9 10 10 9 4 5 6 6 6 6 9 10 8 8 10 11 11 10 10 9 8 6 7
4 4 5 5 5 5 6 6 7 7 7 7 7 7 7 7 7 7 7 7 7 6 5 7 8 9 10 9 8 8 8 8 8 8 8 3 4 5 5 7 7 8 9 8 8 9 9 9 9 9 8 8 6 6
3 3 4 5 5 5 6 6 6 6 7 7 7 7 7 6 6 6 6 6 6 6 5 6 7 9 9 8 8 8 8 8 7 7 5 3 6 6 6 5 6 8 7 7 7 9 8 8 9 9 8 6 5 7
3 3 3 3 4 5 5 6 6 7 6 6 7 6 7 7 6 5 5 6 6 6 6 2 5 6 7 8 8 8 8 7 7 7 6 7 7 6 4 6 9 9 9 10 9 9 9 9 8 8 5 5 7 7
3 3 3 2 3 3 4 5 5 6 6 6 5 6 6 6 6 6 5 5 6 6 5 4 4 3 5 6 7 7 7 7 6 6 6 6 6 6 2 5 8 8 8 9 9 9 6 7 7 6 7 7 6 5
2 2 2 1 2 2 3 4 4 5 5 5 5 5 6 6 5 4 4 5 5 5 4 2 2 3 4 4 4 5 5 5 5 5 4 5 6 5 4 7 8 9 9 10 8 7 7 6 6 6 6 6 5 4
1 1 1 1 1 2 2 2 3 3 4 4 4 4 5 4 3 3 3 4 3 4 2 -0 2 3 3 3 3 3 2 1 3 3 4 5 5 5 7 8 9 10 9 7 6 6 6 6 5 6 5 5 4 2
1 1 1 1 1 1 1 1 2 2 2 3 3 3 2 2 1 2 2 2 2 1 0 -0 1 3 4 2 1 2 1 1 3 3 5 4 6 7 8 8 8 7 6 6 5 5 5 5 5 5 4 3 2 1
1 1 1 1 1 1 1 1 1 1 1 1 1 1 1 1 1 1 0 0 -0 0 -0 0 1 4 2 2 2 1 1 2 3 5 6 5 6 7 8 8 6 6 6 5 5 5 5 4 4 3 3 2 1 1
1 0 0 0 0 1 1 0 0 0 1 1 1 0 0 1 1 1 1 1 1 3 1 2 2 2 2 2 3 2 2 3 3 5 3 4 7 8 7 6 6 6 5 5 4 4 4 3 3 2 1 1 0 -0
-0 -0 -0 0 0 0 0 0 0 0 0 0 0 -0 1 1 1 1 2 2 3 1 0 1 1 1 1 1 0 1 2 3 1 2 4 6 7 7 6 6 5 4 3 3 3 2 2 2 1 1 1 0 -1 -1
-0 -0 -0 -0 -1 -0 -0 -0 -0 -0 0 1 0 0 1 1 2 3 3 1 -1 -0 0 0 -0 1 -0 -0 -0 1 3 3 2 3 5 6 5 5 4 3 2 2 2 1 1 1 1 0 -0 -0 -1 -1 -2 -3
-1 -1 -1 -1 -1 -1 -1 -1 -1 -0 -0 0 -0 1 1 1 -0 -1 -1 -0 -1 -1 -0 0 1 1 1 0 1 2 2 2 3 5 6 5 4 3 3 2 2 1 0 0 1 -0 -0 -1 -1 -1 -2 -2 -3 -4
-2 -2 -2 -1 -2 -1 -1 -1 -1 -1 -0 -0 -1 -1 -0 -0 -1 -1 -2 -1 -1 -1 -1 -0 1 0 1 1 1 1 2 3 5 4 4 4 3 3 2 2 1 1 0 0 -0 -1 -1 -2 -2 -3 -3 -4 -4 -4
-3 -3 -2 -2 -2 -3 -2 -2 -2 -1 -2 -2 -1 -1 -1 -1 -1 -1 -1 -2 -0 -2 0 1 1 1 3 2 2 3 3 3 3 3 3 2 2 2 2 2 1 0 -0 -1 -1 -1 -2 -2 -3 -3 -4 -4 -5 -4
-3 -3 -2 -3 -3 -3 -3 -3 -2 -3 -3 -2 -1 -1 -3 -2 -2 -2 -2 -1 -1 -1 0 0 1 1 1 1 2 3 3 2 2 2 1 1 1 1 1 0 0 -0 -0 -1 -1 -2 -2 -3 -3 -4 -4 -5 -5 -4
-3 -3 -2 -3 -3 -3 -3 -3 -3 -2 -2 -1 -2 -2 -2 -2 -2 -2 -2 -2 -2 -1 -1 -1 -0 0 1 2 1 1 1 1 1 1 0 0 0 0 0 -0 -0 -0 -1 -1 -1 -2 -2 -3 -4 -4 -5 -4 -4 -4
-3 -3 -3 -3 -3 -3 -3 -4 -4 -3 -2 -1 -2 -2 -2 -2 -2 -2 -2 -3 -3 -2 -2 -1 -0 0 1 1 1 1 1 0 -0 -1 -1 -1 -1 -1 -1 -1 -1 -1 -1 -1 -2 -3 -3 -4 -4 -4 -5 -4 -4 -4
-4 -4 -4 -4 -4 -4 -3 -4 -4 -4 -2 -1 -1 -1 -1 -1 -2 -3 -3 -3 -4 -2 -1 -1 -1 -1 -1 -1 -1 -1 -1 -1 -1 -1 -1 -1 -1 -1 -2 -2 -2 -2 -2 -2 -3 -3 -4 -4 -4 -5 -5 -4 -4 -4
-4 -4 -5 -5 -4 -4 -4 -3 -2 -3 -2 -2 -2 -2 -2 -2 -2 -3 -3 -3 -2 -2 -1 -1 -1 -1 -1 -0 -0 -1 -1 -1 -1 -2 -2 -2 -2 -2 -2 -2 -3 -3 -3 -3 -4 -4 -4 -4 -4 -4 -4 -4 -4 -4
-4 -4 -4 -4 -4 -4 -4 -3 -3 -2 -2 -2 -3 -2 -1 -1 -1 -1 -1 -1 -1 -1 -1 -1 -1 -0 -0 -1 -1 -1 -1 -1 -2 -2 -2 -2 -2 -3 -3 -3 -4 -4 -4 -3 -4 -4 -4 -4 -4 -4 -4 -4 -4 -5
-4 -4 -4 -4 -4 -2 -4 -3 -3 -2 -2 -1 -1 -1 -0 -1 -1 -1 -1 -1 -1 -1 -1 -1 -1 -1 -1 -1 -1 -1 -1 -1 -2 -2 -3 -3 -3 -3 -4 -4 -4 -4 -4 -4 -4 -4 -4 -5 -4 -4 -4 -4 -5 -6
-4 -4 -4 -3 -4 -3 -3 -2 -2 -2 -2 -1 -1 -1 -1 -1 -1 -1 -1 -0 -0 -1 -1 -1 -1 -1 -1 -1 -1 -1 -2 -2 -3 -3 -2 -4 -4 -4 -4 -4 -4 -4 -4 -4 -4 -5 -5 -4 -4 -4 -4 -5 -6 -7
-3 -4 -4 -2 -2 -2 -1 -2 -1 -1 -1 -2 -1 -1 -1 -1 -2 -2 0 0 0 -0 -0 -1 -1 -1 -1 -1 -1 -2 -2 -2 -3 -3 -3 -4 -4 -4 -4 -4 -4 -4 -4 -4 -4 -4 -4 -4 -4 -5 -6 -6 -7 -7
-3 -2 -3 -3 -1 -2 -2 -1 -2 -1 -1 -1 -1 -1 -1 -3 -2 -0 0 0 0 -0 -1 -1 -1 -1 -2 -2 -2 -2 -2 -2 -3 -3 -3 -3 -4 -4 -5 -5 -4 -4 -4 -4 -4 -4 -5 -4 -5 -6 -6 -7 -7 -8
-3 -2 -2 -2 -2 -2 -2 -1 -1 -2 -1 -1 -1 -1 -2 -2 -0 0 0 -0 -1 -1 -1 -1 -2 -2 -2 -2 -2 -2 -2 -3 -4 -5 -4 -3 -4 -4 -4 -4 -4 -5 -4 -5 -5 -5 -4 -4 -5 -6 -6 -7 -8 -8
-3 -2 -2 -2 -2 -2 -2 -2 -2 -1 -1 -1 -1 -1 -1 -1 -1 -1 -1 -1 -2 -2 -2 -2 -2 -2 -3 -3 -3 -3 -4 -6 -6 -6 -6 -6 -5 -5 -4 -4 -4 -4 -5 -5 -5 -5 -5 -5 -5 -6 -7 -7 -7 -8
-3 -3 -2 -2 -3 -2 -2 -2 -2 -2 -2 -2 -3 -3 -3 -3 -2 -2 -2 -3 -3 -2 -3 -3 -3 -3 -4 -5 -5 -6 -6 -6 -5 -6 -6 -6 -6 -6 -5 -5 -5 -5 -5 -5 -5 -5 -6 -6 -6 -6 -7 -7 -8 -8
-2 -2 -2 -3 -2 -2 -2 -2 -2 -2 -3 -3 -3 -3 -3 -3 -3 -3 -3 -4 -4 -4 -4 -4 -5 -6 -6 -6 -7 -7 -7 -6 -6 -6 -7 -6 -6 -6 -6 -6 -6 -6 -6 -7 -7 -7 -7 -7 -7 -7 -8 -8 -8 -9
-3 -3 -3 -3 -2 -2 -2 -3 -3 -3 -3 -3 -3 -4 -4 -4 -4 -4 -4 -4 -5 -6 -7 -7 -8 -8 -8 -8 -8 -8 -8 -7 -7 -7 -7 -7 -7 -7 -7 -7 -7 -7 -7 -7 -8 -8 -8 -8 -8 -9 -9 -10 -10 -11
-4 -4 -3 -3 -3 -3 -3 -4 -4 -3 -3 -3 -3 -3 -3 -3 -4 -7 -7 -7 -7 -8 -8 -8 -8 -8 -9 -8 -8 -8 -8 -8 -8 -8 -8 -8 -8 -8 -8 -8 -8 -8 -8 -8 -9 -9 -9 -9 -9 -10 -10 -11 -11 -11

GFSWCAN_850_temp_003.txt.gz
Temp
6 6 6 7 6 6 7 7 7 7 7 8 8 8 9 9 9 9 9 10 10 10 10 11 11 11 11 11 4 11 9 9 4 4 5 4 6 4 5 8 7 5 4 5 4 6 6 11 10 7 8 9 9 8
4 5 6 6 6 6 7 7 7 7 7 7 8 8 8 8 8 9 9 9 9 9 9 10 11 11 11 11 10 10 10 10 9 2 2 3 4 4 4 7 9 6 6 4 5 5 9 11 10 10 10 9 9 8
4 4 5 6 6 6 6 7 7 7 7 7 7 7 8 8 7 8 8 8 8 7 8 9 10 10 10 10 10 9 10 10 10 10 6 3 5 3 5 5 4 8 10 6 5 9 10 9 9 9 9 9 8 6
4 4 5 5 5 6 6 6 6 6 6 7 7 7 7 7 7 7 7 8 7 7 6 8 9 9 9 9 9 9 9 9 9 9 8 2 3 5 4 6 6 7 7 6 6 8 9 9 9 9 8 7 6 5
3 3 4 5 5 5 6 6 6 6 7 7 7 7 7 7 7 7 7 7 7 7 5 7 8 9 9 8 9 9 9 9 9 8 5 3 5 5 4 3 4 7 7 6 6 8 8 8 8 7 6 4 4 5
3 3 3 3 4 5 5 6 6 6 6 6 7 6 7 7 6 6 6 6 7 6 6 3 6 7 8 8 8 7 8 8 7 8 7 7 8 7 3 6 8 9 9 8 7 8 8 7 6 5 4 5 5 4
3 4 3 3 4 4 5 5 5 5 6 5 6 6 6 6 6 6 6 7 7 7 6 5 4 4 7 6 7 7 7 7 7 7 7 6 6 6 2 6 8 8 8 8 8 7 6 4 3 4 5 5 5 5
3 3 3 3 2 3 3 3 4 5 5 5 5 6 5 5 5 5 5 5 6 6 5 3 2 4 5 5 5 5 6 5 5 5 4 4 5 5 3 6 7 8 8 8 8 6 5 4 4 4 5 5 4 4
2 2 2 2 2 2 2 2 3 4 5 5 4 5 5 4 3 4 4 4 4 4 4 2 2 3 3 3 3 3 3 1 3 2 3 4 2 4 4 6 8 8 8 7 5 4 4 4 3 3 4 4 3 3
2 2 2 1 1 2 2 2 2 3 3 4 4 4 4 3 3 3 3 3 3 2 2 0 1 2 3 2 1 1 1 1 2 2 2 2 3 7 7 7 7 7 6 5 3 2 4 4 4 4 4 3 2 2
1 1 1 1 1 1 1 1 1 1 2 2 2 2 1 1 2 2 1 0 0 -0 -1 -0 1 2 2 1 1 0 1 0 2 -0 -0 -2 1 6 8 7 6 5 5 5 4 4 3 4 3 3 3 2 1 1
1 1 1 1 1 1 1 1 1 1 1 2 2 1 1 1 1 1 0 0 -0 0 -0 1 1 2 1 1 1 0 0 -0 0 3 -0 1 1 8 7 6 5 5 5 5 4 3 3 2 2 1 1 1 0 -0
1 1 1 0 0 1 1 1 0 0 0 0 0 0 0 0 1 -0 0 1 -0 1 1 1 1 1 0 1 -0 0 1 1 2 0 0 -1 5 5 5 5 4 4 4 3 3 2 2 1 1 -0 -1 -1 -1 -1
-0 -0 0 0 0 1 0 0 -0 0 1 1 1 -2 -2 -1 -3 -0 -0 0 -0 0 1 0 -0 0 -0 -1 -0 -1 -2 -1 -2 -2 -1 -2 4 4 4 4 4 4 3 2 2 1 1 1 0 -0 -1 -2 -2 -3
-1 -1 -1 -1 -0 -0 0 -0 -1 -1 0 0 -0 -2 -3 -0 -0 -1 -0 -1 -0 -0 -0 -1 -1 0 -1 -3 -3 -3 -3 1 -3 -2 -3 3 3 3 3 3 2 2 2 1 1 1 1 0 -1 -1 -1 -2 -3 -4
-1 -1 -1 -1 -1 -1 -1 -1 -1 -1 0 -0 -0 -2 -0 0 -2 -2 -1 -0 -1 -0 0 1 -1 -4 -4 -4 -4 -4 -3 -2 -3 -1 2 2 2 2 2 2 2 2 1 1 1 1 -0 -0 -1 -2 -2 -3 -4 -4
-2 -1 -2 -1 -2 -3 -2 -2 -2 -1 -0 -1 -2 -1 -1 -1 -1 -1 -1 -1 -1 -0 -4 1 -4 -3 -1 -5 -4 -2 -3 -4 1 1 1 1 1 1 1 1 1 1 1 1 0 0 -0 -1 -1 -2 -3 -3 -4 -5
-2 -2 -2 -2 -2 -3 -3 -2 -2 -2 -3 -2 -1 -1 -1 -1 -1 -1 -2 -1 -1 -1 0 -3 1 -4 -6 -5 -5 -4 2 2 2 2 2 1 1 0 0 0 0 0 0 0 -0 -0 -0 -1 -2 -3 -3 -4 -4 -5
-3 -3 -3 -3 -3 -3 -2 -2 -2 -2 -2 -2 -1 -1 -2 -2 -2 -2 -2 -1 -2 -1 -1 -1 -6 -7 -5 0 1 2 2 1 1 0 0 -0 -0 -1 -1 -1 -1 -1 -1 -1 -1 -1 -1 -2 -3 -4 -4 -4 -5 -5
-3 -3 -3 -4 -3 -3 -3 -3 -3 -3 -2 -2 -2 -2 -2 -2 -2 -2 -2 -2 -2 -2 -2 -5 -5 -0 0 1 1 0 0 0 -0 -1 -1 -1 -1 -1 -1 -1 -1 -1 -1 -1 -2 -2 -2 -2 -3 -4 -4 -4 -5 -4
-3 -4 -4 -4 -3 -3 -3 -3 -3 -3 -3 -2 -1 -2 -2 -2 -2 -2 -3 -3 -4 -3 -2 -1 -1 -0 -0 -1 -1 -1 -1 -1 -1 -1 -1 -1 -1 -1 -2 -2 -2 -2 -2 -2 -3 -3 -3 -3 -3 -4 -4 -4 -4 -4
-4 -4 -4 -4 -4 -3 -3 -3 -3 -3 -3 -2 -2 -2 -2 -2 -2 -2 -2 -3 -3 -2 -2 -1 -1 -1 -1 -1 -1 -1 -1 -1 -1 -1 -1 -1 -2 -2 -2 -2 -3 -3 -3 -3 -3 -3 -3 -4 -4 -3 -4 -4 -5 -5
-4 -4 -4 -4 -4 -5 -4 -3 -3 -3 -4 -3 -3 -3 -2 -2 -2 -2 -2 -2 -2 -1 -0 -1 -1 -1 -1 -1 -1 -1 -1 -1 -1 -1 -1 -2 -2 -2 -2 -4 -4 -4 -4 -3 -3 -4 -4 -4 -4 -4 -4 -5 -5 -4
-4 -4 -4 -4 -4 -4 -4 -3 -3 -3 -2 -3 -6 -7 -5 -1 -1 -2 -7 -1 -1 -1 -1 -1 -1 -1 -1 -1 -1 -1 -1 -1 -1 -1 -1 -2 -2 -2 -3 -3 -4 -4 -5 -4 -4 -4 -4 -4 -4 -5 -5 -5 -5 -5
-4 -4 -4 -4 -4 -4 -5 -7 -3 -4 -8 -7 -7 -8 -4 -1 -7 -8 -7 -1 -1 -1 -1 -1 -1 -1 -1 -1 -1 -1 -1 -1 -2 -2 -2 -2 -3 -3 -4 -5 -4 -5 -4 -4 -4 -4 -5 -5 -5 -5 -5 -5 -5 -6
-4 -4 -5 -4 -4 -5 -5 -8 -7 -7 -8 -7 -6 -1 -1 -5 -7 -7 -4 0 0 0 0 -0 -0 -0 -1 -1 -1 -1 -1 -2 -2 -2 -2 -3 -4 -5 -6 -5 -5 -5 -5 -4 -4 -5 -5 -5 -5 -5 -5 -6 -6 -6
-4 -5 -4 -3 -2 -2 -2 -1 -1 -3 -7 -8 -8 -6 -7 -6 -8 -4 -0 0 0 -0 -0 -0 -0 -1 -1 -1 -1 -2 -2 -2 -3 -4 -4 -4 -5 -5 -6 -5 -5 -5 -5 -4 -4 -4 -4 -5 -5 -5 -6 -6 -6 -7
-4 -2 -6 -3 -3 -2 -5 -5 -8 -7 -7 -1 -1 -7 -6 -7 -6 0 0 0 -0 -1 -1 -1 -1 -2 -2 -2 -2 -2 -2 -3 -4 -5 -6 -6 -6 -6 -6 -5 -5 -5 -5 -5 -5 -5 -5 -5 -5 -6 -6 -6 -6 -7
-4 -3 -2 -3 -3 -2 -2 -5 -4 -2 -1 -1 -4 -5 -2 -1 -1 -1 -1 -1 -1 -1 -2 -2 -2 -2 -2 -2 -3 -3 -4 -6 -6 -6 -6 -5 -6 -6 -6 -6 -5 -5 -5 -5 -5 -5 -5 -5 -5 -5 -6 -6 -7 -8
-4 -3 -3 -2 -8 -7 -2 -2 -1 -1 -1 -2 -2 -2 -3 -3 -2 -2 -2 -2 -3 -3 -3 -3 -3 -3 -4 -4 -4 -6 -7 -6 -6 -6 -6 -6 -6 -6 -6 -6 -6 -6 -6 -6 -6 -6 -6 -5 -6 -6 -6 -7 -7 -7
-2 -2 -3 -3 -4 -3 -2 -2 -2 -2 -2 -2 -3 -3 -3 -3 -3 -3 -3 -4 -3 -4 -4 -5 -5 -5 -6 -6 -7 -7 -7 -7 -7 -7 -7 -7 -7 -8 -7 -6 -7 -6 -7 -7 -7 -7 -7 -7 -7 -7 -7 -7 -8 -8
-3 -3 -3 -4 -4 -3 -2 -2 -3 -3 -3 -3 -3 -4 -4 -4 -4 -4 -4 -4 -4 -5 -6 -7 -7 -7 -7 -7 -7 -8 -8 -8 -8 -8 -8 -7 -8 -8 -8 -7 -7 -8 -8 -8 -8 -8 -8 -8 -8 -8 -8 -9 -9 -10
-3 -3 -3 -4 -4 -3 -3 -3 -3 -3 -3 -4 -3 -3 -3 -3 -3 -7 -8 -7 -7 -7 -8 -8 -8 -8 -9 -9 -9 -9 -9 -8 -8 -8 -8 -8 -8 -8 -8 -8 -8 -8 -8 -8 -8 -9 -9 -9 -9 -9 -10 -10 -10 -11

GFSWCAN_850_temp_006.txt.gz
Temp
6 6 6 6 6 6 6 6 6 7 7 7 8 8 9 9 10 10 10 10 10 10 11 11 11 11 11 11 4 10 9 7 3 3 3 2 5 3 4 6 6 5 3 4 3 4 6 9 9 7 8 8 8 8
4 6 6 6 6 6 6 6 6 7 7 7 7 7 8 8 8 9 9 9 9 9 10 10 10 11 10 10 10 10 10 10 9 2 2 -0 4 3 1 6 7 7 6 4 4 5 8 9 9 9 8 8 8 7
3 4 6 6 6 6 6 6 6 7 7 7 7 7 7 8 8 8 8 8 8 8 9 9 10 10 10 10 10 9 9 10 9 10 5 2 4 3 5 5 4 7 9 5 5 9 9 9 9 8 8 7 6 4
4 4 5 6 6 6 6 6 6 7 6 7 7 7 7 7 7 7 8 7 7 7 7 9 9 10 10 9 9 9 10 9 9 9 8 2 3 5 4 6 5 6 6 5 6 7 7 8 9 8 7 5 4 3
3 3 3 4 5 5 5 6 6 7 7 7 7 7 7 7 7 7 7 7 7 7 5 7 9 10 9 9 9 9 9 9 8 8 4 3 4 4 3 2 4 7 7 5 6 8 7 7 6 5 5 3 2 1
3 3 3 4 4 5 5 5 6 6 6 6 7 7 6 6 6 6 6 7 7 7 6 3 7 8 8 8 8 9 8 7 7 7 6 7 8 7 3 4 9 9 8 8 7 7 7 6 5 3 3 3 4 4
2 3 4 4 4 4 5 5 6 6 6 6 6 6 6 6 6 6 6 7 7 6 6 5 5 5 5 5 7 7 7 7 6 7 6 7 7 6 2 6 8 8 8 8 7 6 6 4 2 2 2 3 4 4
2 2 2 4 4 4 5 5 5 5 5 5 5 5 6 6 6 5 6 6 6 5 5 3 3 4 5 5 5 5 5 5 6 5 4 5 5 5 3 8 8 8 8 7 6 4 2 2 2 3 4 3 3 3
1 2 2 3 3 3 3 3 4 5 5 5 5 5 5 4 4 4 5 4 5 5 4 2 2 3 3 4 4 4 4 2 3 2 3 4 1 4 4 6 7 7 6 6 5 4 3 3 4 3 3 3 2 2
1 1 1 1 2 3 3 3 3 4 4 3 3 4 4 3 3 3 3 3 4 3 3 1 2 2 3 3 2 2 1 1 2 1 2 2 4 6 7 7 7 6 5 5 3 3 3 3 3 2 2 1 1 1
1 1 1 1 2 2 2 2 2 2 3 3 3 3 2 2 2 2 2 2 1 0 0 0 1 2 2 1 1 1 1 0 1 -1 2 -1 1 3 7 6 5 4 4 3 3 3 3 2 2 2 2 1 1 -0
1 1 1 1 1 1 1 1 1 2 2 2 3 1 1 1 1 0 0 -0 -0 -0 -0 0 1 1 1 1 1 -0 -0 -1 0 0 -1 2 -1 3 4 4 4 4 4 3 3 3 2 2 2 1 0 -0 -1 -1
1 1 0 1 1 1 1 1 1 2 2 2 2 1 0 -0 1 0 0 0 -0 0 0 1 0 1 0 0 -1 -1 -0 -0 -0 -0 1 -2 3 3 3 3 3 3 3 2 2 2 2 1 1 -0 -0 -1 -1 -2
1 1 0 0 0 1 0 0 1 1 1 1 1 -1 -1 -3 -2 -2 -1 -1 -0 0 1 1 -0 -1 -1 -1 -0 -1 -3 -3 -1 -0 -3 -2 2 3 2 2 2 2 2 2 1 1 1 0 0 -0 -0 -1 -1 -2
0 -1 -1 -0 0 1 0 -0 -0 0 1 0 0 -3 -4 -1 -1 -1 -1 -1 -0 0 0 -0 -1 -1 -3 -5 -6 -4 -5 -1 -0 -3 -5 2 1 1 1 1 1 1 1 1 1 1 1 0 0 -0 -0 -1 -2 -3
-1 -1 -0 -1 -1 0 -0 -1 -0 -0 0 -0 -1 -4 -2 -1 -1 -2 -1 -1 -1 -0 -1 -0 -3 -5 -5 -6 -5 -6 -5 -4 -4 -4 1 1 0 0 0 0 0 0 0 0 0 -0 -0 -0 -0 -1 -1 -1 -2 -3
-2 -1 -1 -1 -1 -1 -1 -1 -1 -1 -0 -1 -2 -1 -1 -1 -1 -2 -1 -0 -1 -1 -4 -2 -5 -3 -4 -8 -6 -4 -5 -6 1 1 0 0 -0 -0 -0 -0 -0 -1 -1 -1 -1 -1 -1 -1 -1 -1 -1 -2 -3 -4
-1 -1 -1 -1 -2 -2 -2 -2 -2 -2 -2 -2 -2 -1 -1 -1 -1 -1 -1 -1 -1 -1 -1 -4 -0 -5 -6 -6 -7 -5 1 1 1 1 1 0 -0 -0 -1 -1 -1 -1 -1 -2 -2 -2 -2 -2 -2 -2 -2 -3 -3 -3
-1 -1 -2 -2 -2 -2 -2 -3 -2 -2 -2 -2 -2 -1 -1 -1 -1 -1 -1 -1 -1 -1 -1 -1 -8 -9 -7 -3 -0 2 1 0 -0 -0 -0 -1 -1 -1 -1 -1 -1 -1 -2 -2 -2 -2 -2 -2 -3 -2 -2 -3 -3 -4
-3 -3 -3 -3 -3 -3 -3 -3 -3 -2 -2 -2 -2 -2 -2 -2 -1 -2 -2 -2 -2 -2 -2 -3 -6 -1 -0 1 1 0 -0 -0 -1 -1 -1 -1 -1 -1 -1 -1 -1 -2 -2 -2 -3 -3 -3 -3 -3 -3 -4 -3 -4 -4
-4 -3 -4 -4 -3 -3 -3 -3 -3 -3 -3 -2 -2 -2 -2 -2 -2 -3 -3 -3 -3 -3 -3 -2 -1 -1 -0 -0 -0 -1 -1 -1 -1 -1 -1 -1 -1 -1 -1 -1 -2 -2 -3 -4 -4 -4 -4 -4 -4 -4 -4 -4 -4 -4
-4 -4 -4 -4 -3 -3 -3 -3 -3 -3 -3 -3 -3 -2 -2 -2 -2 -2 -2 -4 -3 -3 -3 -1 -0 -0 -1 -1 -0 -1 -1 -1 -1 -1 -1 -1 -1 -1 -2 -2 -3 -3 -3 -4 -4 -5 -5 -5 -5 -5 -5 -4 -4 -4
-4 -4 -4 -4 -3 -4 -4 -4 -3 -3 -4 -3 -3 -4 -3 -3 -2 -2 -3 -3 -2 -1 -0 -1 -0 -1 -1 -1 -1 -1 -1 -1 -1 -1 -1 -1 -2 -2 -2 -2 -2 -4 -4 -4 -5 -5 -5 -5 -4 -4 -4 -4 -5 -5
-4 -4 -3 -4 -4 -6 -5 -4 -4 -3 -3 -4 -9 -10 -8 -2 -2 -3 -9 -2 -1 -0 -1 -1 -1 -1 -1 -1 -1 -1 -1 -1 -1 -1 -1 -2 -2 -2 -2 -2 -3 -5 -5 -5 -5 -5 -5 -5 -4 -5 -5 -5 -5 -5
-4 -5 -5 -5 -6 -5 -5 -9 -5 -7 -10 -11 -11 -11 -5 -1 -9 -12 -9 -1 -1 -0 -0 -0 -1 -1 -1 -1 -1 -1 -1 -1 -2 -2 -2 -2 -3 -3 -2 -3 -5 -5 -5 -5 -5 -5 -4 -5 -5 -5 -5 -5 -5 -5
-7 -4 -5 -5 -5 -7 -8 -11 -12 -10 -14 -11 -10 -2 -2 -8 -10 -8 -6 -1 -0 -0 -0 -0 -0 -1 -1 -1 -1 -1 -1 -2 -2 -2 -2 -3 -4 -5 -5 -6 -6 -5 -5 -5 -5 -5 -4 -5 -5 -5 -5 -5 -5 -6
-8 -7 -4 -4 -3 -3 -5 -4 -4 -7 -12 -9 -11 -9 -11 -7 -8 -6 -0 -0 -0 -0 -1 -1 -1 -1 -1 -1 -1 -2 -2 -2 -2 -3 -3 -3 -5 -6 -6 -6 -6 -6 -6 -6 -5 -5 -5 -5 -5 -5 -5 -5 -6 -6
-4 -4 -6 -4 -3 -3 -6 -9 -12 -10 -10 -2 -4 -9 -8 -8 -7 -1 -0 -0 -1 -1 -2 -2 -2 -2 -2 -2 -2 -2 -3 -3 -4 -4 -4 -4 -5 -5 -6 -6 -6 -7 -6 -5 -5 -5 -6 -5 -5 -5 -5 -5 -6 -6
-5 -4 -3 -4 -3 -3 -3 -6 -6 -2 -1 -1 -7 -10 -4 -1 -1 -1 -1 -1 -2 -2 -2 -2 -2 -3 -3 -3 -4 -4 -4 -5 -5 -6 -6 -7 -7 -6 -6 -6 -6 -6 -7 -6 -6 -6 -6 -6 -6 -6 -5 -6 -6 -6
-4 -3 -3 -4 -8 -8 -2 -2 -1 -1 -1 -2 -2 -2 -2 -2 -2 -2 -2 -3 -3 -3 -3 -3 -4 -4 -4 -5 -5 -5 -6 -6 -6 -7 -7 -7 -7 -7 -7 -8 -7 -7 -6 -6 -7 -7 -7 -7 -6 -6 -6 -6 -6 -6
-3 -3 -3 -3 -5 -3 -2 -2 -2 -2 -2 -3 -3 -3 -3 -3 -3 -3 -4 -4 -4 -4 -4 -5 -5 -5 -5 -5 -6 -6 -7 -7 -7 -7 -7 -7 -7 -8 -8 -8 -8 -7 -7 -7 -7 -7 -7 -7 -7 -7 -7 -7 -7 -8
-3 -3 -3 -9 -4 -3 -3 -3 -3 -4 -4 -3 -4 -3 -4 -4 -4 -5 -5 -6 -6 -6 -6 -7 -7 -7 -7 -8 -8 -8 -8 -8 -8 -8 -8 -8 -8 -8 -8 -8 -8 -8 -8 -8 -8 -8 -8 -8 -8 -8 -8 -9 -9 -9
-4 -4 -4 -4 -5 -4 -4 -3 -4 -4 -3 -4 -4 -4 -4 -5 -4 -9 -10 -10 -9 -9 -9 -8 -8 -9 -9 -9 -9 -10 -9 -9 -9 -9 -9 -9 -9 -9 -9 -9 -9 -9 -9 -9 -9 -9 -9 -9 -9 -9 -9 -10 -10 -10

GFSWCAN_850_temp_009.txt.gz
Temp
5 6 5 5 6 6 6 6 7 7 7 8 8 9 9 10 10 11 11 11 11 11 11 11 11 11 11 11 4 9 8 7 2 3 1 2 -1 2 4 5 5 5 4 2 3 4 4 9 9 7 8 9 8 7
4 5 5 5 5 6 6 6 6 7 7 7 8 8 8 9 9 9 9 10 10 10 10 11 11 11 11 11 11 10 10 9 9 2 2 -2 2 2 3 6 6 6 5 4 4 5 8 9 9 9 8 7 7 5
3 4 5 5 6 6 6 6 6 6 7 7 7 7 8 8 8 8 8 9 9 9 10 10 10 11 10 10 10 10 9 10 9 9 5 2 4 2 5 5 5 6 8 4 5 8 8 9 8 8 8 7 5 3
3 4 5 6 6 6 6 6 6 6 6 6 7 7 7 7 7 7 7 7 8 8 7 9 10 10 10 10 10 9 9 9 9 8 7 2 3 5 4 5 5 7 6 5 6 7 7 8 8 7 5 5 4 2
2 3 4 5 6 6 6 6 6 6 6 6 6 7 7 7 7 7 6 7 7 7 5 8 9 9 9 9 8 8 9 9 8 6 3 3 4 4 3 2 3 6 6 5 6 8 7 8 5 4 3 2 1 2
2 3 3 4 5 6 6 5 6 6 6 6 6 6 6 6 7 6 6 6 7 7 6 3 7 8 8 9 8 8 8 8 7 7 6 7 8 7 3 4 9 9 8 8 7 8 7 6 3 1 2 1 2 4
1 2 2 2 3 4 5 5 5 6 6 6 6 6 6 6 6 6 7 7 8 6 6 5 4 5 6 6 7 7 7 7 6 6 5 7 7 6 2 6 8 8 8 8 7 6 5 3 2 2 3 3 3 3
2 2 2 2 2 3 3 4 4 5 5 6 6 5 6 5 5 5 6 6 7 6 6 3 2 4 4 5 5 5 5 5 5 5 4 4 5 5 4 7 8 7 7 6 6 5 4 3 3 3 3 3 3 2
2 2 2 2 2 3 3 4 4 4 4 5 5 5 5 5 4 5 5 5 5 5 5 2 2 3 4 3 4 4 4 2 3 2 2 3 2 4 4 5 6 6 5 5 4 3 2 2 3 2 2 2 1 1
1 1 1 2 2 2 3 3 4 4 4 4 4 4 3 3 4 3 4 4 4 3 3 2 2 2 4 3 2 3 2 1 2 1 2 1 2 5 5 4 5 6 4 3 3 3 2 1 1 1 2 1 0 -0
1 1 1 2 2 2 2 3 3 3 3 3 3 3 2 2 3 3 2 2 1 1 1 1 1 2 2 2 1 1 1 0 1 -1 1 0 0 2 2 3 3 3 3 2 2 1 1 1 1 1 1 1 0 -1
1 1 1 1 1 1 1 2 2 2 2 3 4 2 2 2 2 1 1 -0 -0 1 -0 0 1 1 1 1 1 -1 -0 -1 -0 -1 -0 -0 -1 2 3 2 2 2 2 2 2 2 2 2 1 0 0 0 -0 -1
1 1 1 1 1 1 1 1 2 2 3 3 2 1 1 0 1 1 1 0 -0 -0 0 0 0 1 0 1 -1 -1 -1 -2 -2 -1 -1 -2 1 2 2 2 2 2 2 1 1 1 1 1 0 0 -0 -1 -1 -1
0 0 0 1 1 0 1 1 1 1 2 2 2 -0 -0 -1 -0 -2 -2 -2 -0 0 0 1 -1 -1 -1 -2 -1 -1 -3 -3 -0 -1 -3 -4 1 2 2 1 1 1 1 1 0 -0 -0 -0 -0 -1 -1 -1 -1 -1
0 -0 -0 0 0 0 0 1 1 1 2 1 1 -3 -3 -2 -1 -1 -0 -0 0 0 0 -0 -1 -1 -3 -4 -3 -4 -3 -2 0 -3 -5 1 1 1 0 -0 -0 -0 -0 -1 -1 -1 -1 -1 -1 -1 -1 -2 -2 -2
-1 -1 -1 -0 0 -0 -0 -0 -0 1 1 0 -1 -5 -2 -1 -1 -1 -0 -0 -0 -0 -0 -0 -4 -7 -6 -7 -6 -4 -5 -5 -5 -5 1 0 0 -1 -1 -1 -1 -1 -1 -1 -1 -1 -2 -2 -2 -2 -2 -2 -2 -2
-2 -1 -1 -1 -1 -1 -0 -1 -1 -0 0 -1 -2 -1 -2 -1 -1 -2 -1 -0 -0 -1 -3 -3 -5 -4 -5 -9 -7 -5 -6 -6 0 1 -0 -1 -1 -1 -1 -1 -1 -1 -1 -1 -1 -2 -2 -2 -2 -3 -3 -3 -3 -3
-2 -1 -1 -1 -1 -1 -1 -1 -1 -1 -1 -2 -2 -2 -1 -1 -2 -3 -2 -1 -1 -1 -1 -4 -2 -7 -8 -7 -8 -6 0 0 0 -0 -1 -1 -1 -1 -1 -1 -1 -1 -2 -2 -2 -2 -2 -3 -3 -3 -4 -4 -3 -3
-1 -1 -2 -2 -2 -1 -2 -2 -2 -2 -2 -2 -2 -1 -1 -1 -1 -1 -1 -1 -1 -1 -1 -1 -9 -9 -8 -3 -1 1 1 0 -0 -1 -1 -1 -1 -1 -1 -1 -1 -2 -2 -2 -2 -2 -3 -4 -4 -4 -4 -4 -4 -4
-2 -2 -2 -2 -2 -1 -2 -3 -2 -2 -2 -2 -2 -2 -2 -2 -2 -2 -2 -2 -2 -2 -2 -3 -6 -1 -1 0 0 -0 -0 -1 -1 -2 -2 -1 -1 -1 -1 -2 -2 -2 -2 -2 -2 -3 -3 -5 -5 -5 -4 -4 -4 -4
-3 -3 -2 -2 -2 -2 -3 -3 -3 -3 -3 -2 -2 -2 -2 -2 -3 -2 -3 -3 -3 -3 -3 -1 -1 -1 -0 -0 -1 -1 -1 -1 -1 -2 -2 -2 -2 -2 -2 -2 -2 -2 -2 -2 -2 -3 -4 -5 -5 -4 -5 -5 -5 -5
-3 -3 -3 -3 -3 -3 -3 -3 -3 -3 -3 -3 -3 -3 -3 -3 -3 -3 -3 -5 -4 -2 -3 -1 0 -0 -0 -0 -0 -1 -1 -1 -1 -2 -2 -2 -2 -2 -2 -2 -2 -2 -2 -2 -4 -5 -5 -5 -5 -4 -4 -4 -5 -5
-4 -4 -4 -3 -3 -4 -4 -4 -3 -4 -5 -3 -4 -4 -4 -3 -3 -3 -4 -4 -3 -1 0 -0 -0 -1 -1 -1 -1 -1 -1 -1 -2 -2 -2 -2 -2 -2 -2 -2 -3 -3 -3 -2 -6 -6 -5 -5 -5 -5 -4 -5 -5 -5
-4 -4 -4 -4 -4 -6 -5 -4 -4 -4 -4 -5 -10 -10 -9 -3 -4 -4 -9 -3 -0 -0 -1 -1 -1 -1 -1 -1 -1 -1 -1 -1 -2 -2 -2 -2 -2 -2 -2 -3 -3 -4 -5 -5 -6 -5 -5 -5 -5 -5 -5 -5 -5 -5
-3 -5 -4 -5 -6 -5 -6 -8 -7 -7 -8 -13 -12 -12 -6 -3 -10 -13 -10 -1 -1 -0 -0 -0 -0 -1 -1 -1 -1 -1 -1 -1 -1 -2 -2 -2 -2 -2 -2 -3 -3 -4 -5 -6 -6 -5 -5 -5 -5 -5 -5 -5 -5 -5
-9 -5 -5 -5 -5 -9 -10 -10 -8 -10 -15 -13 -12 -4 -4 -10 -11 -9 -7 -0 -0 -0 -0 -1 -1 -1 -1 -2 -2 -2 -2 -2 -2 -2 -2 -2 -3 -3 -4 -4 -3 -4 -6 -7 -7 -6 -6 -6 -5 -5 -5 -5 -5 -5
-10 -7 -5 -5 -5 -5 -7 -6 -6 -8 -14 -10 -12 -10 -13 -9 -10 -6 -0 -0 -1 -1 -1 -1 -2 -2 -2 -2 -2 -2 -2 -2 -2 -2 -3 -3 -4 -4 -5 -6 -6 -6 -6 -7 -7 -7 -6 -6 -6 -6 -6 -5 -5 -5
-4 -5 -6 -5 -5 -4 -7 -10 -14 -11 -11 -4 -7 -10 -8 -9 -7 -1 -1 -1 -1 -1 -1 -2 -2 -2 -2 -3 -3 -3 -3 -3 -3 -4 -4 -4 -5 -6 -6 -6 -6 -7 -6 -7 -8 -8 -7 -7 -7 -6 -6 -6 -6 -5
-5 -5 -5 -5 -4 -4 -4 -6 -5 -2 -1 -2 -8 -12 -4 -1 -1 -1 -2 -2 -2 -2 -2 -2 -3 -3 -4 -4 -5 -4 -5 -5 -5 -5 -5 -6 -6 -7 -7 -7 -7 -7 -7 -7 -6 -7 -7 -7 -7 -7 -6 -6 -6 -6
-5 -4 -4 -5 -6 -6 -3 -2 -2 -2 -2 -2 -2 -2 -3 -3 -3 -3 -3 -3 -3 -3 -3 -3 -4 -5 -5 -5 -5 -5 -5 -6 -6 -7 -7 -7 -7 -8 -8 -9 -8 -8 -7 -7 -7 -7 -7 -7 -7 -7 -6 -6 -6 -7
-4 -4 -5 -5 -6 -3 -2 -2 -2 -3 -3 -3 -3 -3 -3 -3 -4 -4 -4 -5 -5 -5 -5 -6 -6 -6 -6 -6 -6 -7 -7 -7 -7 -8 -8 -8 -8 -8 -8 -8 -8 -8 -8 -8 -8 -8 -8 -8 -8 -8 -8 -8 -8 -8
-4 -4 -4 -11 -4 -3 -3 -4 -4 -4 -4 -4 -4 -4 -4 -5 -5 -7 -8 -9 -9 -8 -8 -9 -8 -8 -8 -8 -8 -9 -9 -9 -9 -9 -9 -9 -9 -9 -9 -9 -9 -9 -9 -9 -9 -9 -9 -9 -9 -9 -9 -9 -9 -9
-5 -4 -4 -5 -5 -4 -4 -5 -5 -5 -5 -5 -5 -5 -5 -6 -10 -13 -13 -13 -12 -11 -10 -10 -10 -10 -10 -10 -10 -10 -10 -10 -10 -10 -10 -10 -10 -10 -9 -9 -9 -9 -9 -9 -10 -10 -10 -10 -10 -10 -10 -10 -11 -11

GFSWCAN_850_temp_012.txt.gz
Temp
4 6 5 5 6 6 6 6 7 7 7 8 8 9 9 10 11 11 11 12 12 12 12 11 11 11 10 10 4 8 7 6 2 3 1 2 -2 2 4 5 4 5 3 1 2 4 4 8 8 7 9 8 7 7
4 4 6 5 5 5 6 6 6 7 7 7 7 8 8 9 10 10 10 10 11 11 11 11 11 11 11 11 11 9 9 8 8 2 1 -2 0 0 3 5 5 4 5 6 6 4 7 8 8 9 8 7 6 5
4 3 4 6 5 5 6 6 6 6 6 7 7 7 7 8 8 9 9 9 10 10 10 10 10 10 10 10 10 10 9 10 10 9 4 -0 4 1 4 4 2 5 7 4 6 7 7 9 9 7 6 5 4 3
3 4 3 5 5 5 5 5 5 6 6 6 7 7 7 7 8 8 8 9 9 8 8 9 9 10 10 10 10 9 9 9 9 8 6 1 3 6 3 6 5 6 6 5 4 7 7 8 7 6 5 3 2 1
2 3 3 4 5 5 5 5 5 5 6 6 6 6 6 7 7 7 7 7 8 8 6 8 9 9 9 9 9 9 9 8 7 6 4 3 4 3 3 2 3 7 6 5 6 8 7 6 5 4 2 2 3 3
2 2 3 3 5 5 5 5 5 5 6 6 6 6 6 6 6 7 7 7 6 7 7 3 7 8 8 9 8 8 7 7 6 7 5 6 7 7 3 4 8 9 8 9 7 7 5 5 4 3 2 3 2 2
1 1 1 2 3 5 5 5 5 5 6 6 6 6 6 6 6 6 7 7 7 6 6 5 5 5 6 6 6 7 7 6 6 6 5 6 7 6 2 6 8 8 8 7 7 6 5 3 2 2 1 2 2 3
2 2 1 1 2 2 3 5 5 5 5 5 5 6 6 6 6 6 6 7 7 6 5 3 3 5 4 4 4 4 5 5 5 5 4 4 4 4 3 5 5 6 6 6 5 4 3 2 1 2 2 2 2 2
1 1 1 2 1 1 1 3 4 5 5 5 5 5 5 5 5 5 6 6 6 5 5 2 3 3 3 4 4 3 3 2 2 2 2 3 1 3 2 2 3 5 4 3 2 2 1 1 1 1 2 1 1 1
1 1 1 2 1 1 1 1 2 3 4 4 4 4 3 3 4 4 4 4 4 4 3 2 3 2 4 3 2 3 1 1 2 1 1 1 2 2 1 2 2 2 2 2 2 1 1 1 1 2 1 1 0 0
1 1 2 2 2 2 2 3 2 2 3 3 3 2 2 2 3 2 2 2 1 2 1 1 2 2 2 2 1 2 1 0 0 -2 1 1 0 1 2 2 2 2 2 2 2 1 2 1 1 1 1 0 -0 -1
1 1 2 2 2 1 1 2 1 2 3 3 3 1 1 2 2 1 1 -0 0 0 -0 0 1 1 1 2 2 -0 0 -1 0 -2 -1 -1 -2 1 1 2 2 2 2 1 1 1 1 1 0 -0 -0 -0 -1 -1
0 1 1 2 1 1 2 2 2 2 3 3 3 3 1 0 1 2 1 0 0 -1 -0 -0 0 1 0 1 -0 -1 -1 -2 -2 -3 -2 -3 0 1 1 1 1 1 1 0 0 0 -0 -1 -1 -1 -1 -1 -1 -2
0 0 0 1 1 1 1 1 1 2 3 3 2 0 -1 -0 -1 -1 -0 -2 0 -0 0 0 -1 -0 -1 -1 -2 -2 -4 -4 -1 -4 -4 -4 1 1 1 0 0 -0 -0 -0 -1 -1 -1 -1 -1 -1 -1 -2 -2 -2
0 0 -0 0 1 1 1 1 1 2 2 2 1 -2 -2 -2 -1 -1 -0 -0 -0 0 0 -0 -1 -1 -3 -4 -3 -3 -2 -2 -2 -4 -7 1 1 0 -0 -0 -0 -0 -1 -1 -1 -1 -2 -2 -2 -2 -2 -2 -3 -3
-1 -1 -1 -0 -0 0 1 1 1 1 1 0 -1 -5 -2 -2 -1 -1 -1 -1 -0 -0 -0 -0 -5 -5 -5 -5 -4 -3 -4 -5 -6 -6 1 0 -0 -1 -1 -1 -1 -1 -1 -1 -1 -2 -2 -2 -2 -2 -2 -3 -3 -3
-2 -1 -1 -1 -0 -0 -0 -0 -0 1 0 -1 -2 -3 -2 -3 -1 -1 -1 -0 -0 -0 -2 -2 -4 -4 -5 -7 -6 -6 -8 -8 -0 1 0 -0 -1 -1 -1 -1 -1 -1 -1 -2 -2 -2 -2 -2 -2 -2 -3 -3 -4 -4
-1 -1 -1 -1 -1 -1 -1 -1 -0 -0 -1 -2 -2 -3 -2 -2 -2 -2 -2 -1 -0 -1 -1 -3 -2 -8 -9 -8 -9 -7 -1 0 0 -0 -1 -1 -1 -1 -1 -1 -1 -2 -2 -2 -2 -2 -2 -2 -3 -4 -5 -5 -4 -4
-1 -1 -1 -1 -1 -1 -1 -1 -1 -2 -2 -2 -2 -2 -2 -2 -1 -1 -1 -1 -2 -1 -1 -2 -9 -8 -7 -4 -1 0 -0 -0 -1 -1 -1 -1 -1 -1 -2 -2 -2 -2 -2 -2 -2 -2 -2 -3 -4 -5 -5 -5 -5 -4
-1 -2 -2 -1 -1 -1 -2 -3 -2 -2 -2 -2 -2 -2 -2 -2 -2 -2 -2 -2 -2 -2 -2 -4 -5 -1 -1 0 0 -0 -1 -1 -1 -2 -1 -1 -2 -2 -2 -2 -2 -2 -2 -2 -2 -2 -2 -2 -4 -5 -5 -5 -5 -5
-2 -2 -2 -2 -2 -2 -2 -3 -3 -3 -3 -2 -3 -2 -2 -3 -3 -3 -2 -3 -4 -3 -3 -1 -1 -0 -0 -0 -0 -1 -1 -1 -2 -2 -2 -2 -2 -2 -2 -2 -2 -2 -2 -3 -3 -3 -4 -6 -5 -5 -5 -5 -5 -5
-3 -3 -3 -3 -3 -3 -3 -3 -3 -3 -3 -3 -3 -3 -3 -3 -4 -4 -4 -5 -5 -3 -2 -0 0 0 -0 -0 -0 -1 -1 -1 -2 -2 -2 -2 -2 -2 -2 -2 -2 -2 -3 -3 -4 -4 -5 -6 -5 -5 -5 -5 -5 -4
-4 -3 -3 -3 -3 -3 -5 -4 -4 -4 -5 -4 -4 -5 -4 -4 -4 -5 -5 -5 -4 0 1 -0 -0 -1 -1 -1 -1 -1 -1 -2 -2 -2 -2 -2 -2 -2 -2 -2 -2 -3 -3 -3 -4 -5 -5 -5 -5 -5 -5 -5 -5 -5
-3 -3 -3 -4 -4 -6 -5 -4 -4 -4 -4 -6 -11 -11 -10 -4 -5 -6 -8 -4 -0 0 -0 -1 -1 -1 -1 -1 -1 -1 -1 -2 -2 -1 -1 -2 -2 -2 -2 -2 -3 -3 -4 -4 -5 -5 -6 -6 -6 -6 -6 -6 -5 -5
-3 -5 -4 -6 -6 -6 -9 -5 -8 -6 -6 -14 -11 -12 -7 -5 -11 -12 -11 -3 -1 -0 -0 -1 -1 -1 -1 -1 -2 -2 -2 -2 -2 -2 -2 -2 -2 -2 -2 -2 -3 -4 -4 -5 -6 -7 -7 -7 -7 -7 -6 -6 -6 -6
-10 -6 -5 -5 -6 -9 -11 -9 -8 -9 -16 -14 -10 -6 -7 -11 -11 -9 -7 -1 -0 -1 -1 -1 -1 -1 -2 -2 -2 -2 -2 -2 -3 -3 -2 -3 -2 -2 -3 -3 -4 -4 -6 -7 -7 -7 -7 -8 -8 -7 -7 -7 -6 -6
-9 -6 -6 -6 -5 -6 -8 -8 -8 -10 -15 -11 -13 -12 -14 -10 -11 -6 -1 -1 -1 -1 -1 -1 -1 -1 -2 -2 -2 -2 -3 -3 -3 -3 -3 -4 -4 -4 -5 -5 -6 -6 -7 -7 -7 -8 -8 -8 -8 -8 -7 -7 -6 -6
-5 -6 -8 -6 -6 -5 -8 -11 -15 -12 -11 -5 -7 -11 -9 -9 -8 -1 -1 -1 -2 -2 -2 -2 -3 -3 -3 -3 -3 -4 -4 -4 -4 -5 -5 -5 -5 -5 -6 -7 -7 -7 -7 -8 -8 -8 -8 -8 -8 -8 -7 -7 -7 -6
-5 -5 -5 -7 -6 -5 -5 -6 -6 -3 -2 -3 -8 -12 -5 -2 -2 -2 -2 -2 -3 -3 -3 -3 -3 -4 -3 -4 -4 -5 -5 -5 -5 -6 -6 -6 -6 -7 -7 -7 -8 -8 -8 -8 -8 -8 -8 -8 -8 -8 -8 -8 -7 -7
-6 -6 -5 -6 -8 -9 -3 -3 -2 -2 -2 -2 -3 -3 -3 -3 -3 -4 -4 -4 -4 -4 -5 -5 -5 -6 -6 -6 -6 -6 -6 -6 -6 -7 -7 -7 -8 -8 -8 -8 -8 -8 -8 -8 -8 -8 -8 -8 -8 -8 -8 -8 -8 -8
-5 -6 -5 -5 -6 -3 -2 -3 -3 -3 -3 -3 -3 -4 -4 -5 -5 -7 -8 -8 -8 -8 -8 -8 -8 -8 -8 -8 -8 -8 -8 -8 -8 -8 -8 -9 -9 -9 -9 -9 -9 -9 -9 -9 -9 -9 -9 -9 -9 -9 -9 -9 -9 -9
-5 -5 -5 -12 -5 -3 -4 -4 -4 -4 -4 -4 -4 -4 -5 -6 -7 -11 -13 -12 -11 -10 -11 -11 -10 -10 -10 -10 -10 -10 -10 -10 -10 -10 -10 -10 -10 -10 -10 -10 -10 -10 -9 -9 -9 -10 -10 -10 -10 -10 -10 -10 -11 -11
-6 -6 -6 -6 -6 -5 -5 -5 -5 -6 -6 -5 -5 -7 -8 -10 -14 -15 -14 -14 -14 -14 -13 -12 -12 -11 -11 -11 -11 -11 -11 -11 -11 -11 -11 -11 -11 -11 -11 -10 -10 -10 -10 -10 -10 -11 -11 -11 -11 -12 -12 -12 -12 -12

GFSWCAN_850_temp_015.txt.gz
Temp
5 6 6 6 5 6 6 7 7 8 8 8 9 9 10 10 11 12 12 12 13 13 11 11 11 11 10 10 6 7 7 6 3 4 4 4 4 5 5 6 5 7 6 4 3 4 5 7 8 8 8 7 6 6
3 5 5 6 6 5 5 6 7 7 7 7 8 8 9 10 10 11 11 11 12 12 11 11 10 11 11 11 11 8 9 8 8 3 2 1 3 1 4 7 5 7 7 7 7 7 8 8 8 8 6 5 4 4
3 3 4 5 5 5 5 6 6 6 6 7 7 8 8 8 9 10 10 10 11 11 10 10 10 10 10 10 10 10 8 10 9 9 4 2 4 3 4 4 4 6 6 5 6 8 8 9 8 6 5 4 3 3
2 3 4 4 6 5 5 5 6 6 6 6 6 7 7 8 8 9 9 9 10 10 9 9 9 9 10 10 10 10 10 9 9 7 5 1 3 5 4 6 6 7 5 5 5 7 7 8 7 5 4 2 2 2
3 3 3 4 5 5 5 5 5 5 6 6 6 6 7 7 7 7 8 8 9 9 7 9 9 9 9 9 9 9 9 8 8 5 3 3 5 3 3 3 3 6 6 5 7 8 6 5 4 3 2 2 2 2
2 2 2 3 4 4 5 5 5 5 5 5 5 6 6 6 6 7 7 7 8 8 8 3 6 7 8 8 8 8 8 7 7 6 5 6 8 6 3 4 6 8 7 7 7 6 4 3 2 2 1 2 2 2
2 2 2 2 3 4 5 5 5 5 5 5 5 6 6 6 6 6 7 7 7 6 7 6 5 5 6 6 6 6 6 6 6 6 5 6 7 6 2 5 6 6 6 6 5 5 4 2 1 1 2 2 2 2
2 2 2 1 2 3 4 5 5 5 5 5 5 5 5 6 6 6 6 7 7 6 7 3 2 4 4 4 5 4 5 5 4 4 4 4 4 4 4 4 3 4 4 4 3 4 2 1 1 1 2 2 2 2
1 2 2 2 1 2 3 4 5 5 5 5 5 5 5 5 5 5 6 6 6 6 5 3 3 4 4 3 4 3 3 2 2 2 2 3 2 4 2 1 2 3 3 1 1 1 1 2 2 2 1 1 1 1
1 1 2 1 2 1 1 3 4 5 5 5 5 5 4 4 5 5 5 5 5 4 4 2 2 3 4 3 2 3 2 1 2 1 1 1 2 1 1 1 2 2 2 2 2 2 2 1 1 0 0 0 -0 -1
0 1 1 2 1 1 1 1 2 3 4 3 2 2 2 2 3 3 2 2 1 1 1 1 2 2 2 2 1 2 1 0 1 1 2 2 2 1 1 1 1 2 2 2 1 1 0 0 -0 -0 -0 -0 -1 -1
-0 1 1 1 1 1 1 0 0 2 2 1 1 1 1 1 0 0 1 -0 0 1 0 0 1 1 1 2 2 -0 1 -0 1 -2 0 1 0 1 1 1 1 1 1 1 1 0 0 -0 -0 -1 -1 -1 -2 -2
-0 0 1 1 1 1 1 1 1 1 1 1 1 0 0 0 1 2 2 1 1 -1 -0 0 -0 1 1 1 -0 -1 -0 -1 -3 -1 -0 -1 -0 1 1 1 1 1 1 0 0 -0 -1 -1 -1 -2 -2 -2 -2 -2
-1 -0 0 1 1 1 1 2 1 1 1 1 1 0 -0 0 0 -0 -1 -1 -0 -0 -0 0 -1 -0 -1 -1 -2 -1 -2 -3 -1 -1 -1 -2 0 1 1 0 0 0 0 -0 -1 -1 -2 -2 -2 -2 -2 -2 -2 -2
-1 -1 -0 0 0 1 1 1 1 1 2 2 1 -1 -1 -2 -1 -1 -1 -1 -1 -0 -0 -1 -2 -1 -3 -2 -2 -3 -2 -1 -2 -1 -3 0 0 0 -0 -0 -0 -0 -1 -1 -1 -2 -2 -2 -2 -2 -2 -2 -3 -3
-1 -1 -1 0 -0 0 1 1 1 1 1 1 -1 -3 -3 -2 -2 -1 -1 -0 -1 -0 -0 -0 -4 -2 -2 -3 -3 -2 -2 -3 -2 -4 0 0 0 -0 -0 -0 -0 -1 -1 -1 -2 -2 -2 -2 -2 -2 -2 -2 -3 -4
-2 -0 -1 -1 -0 0 0 0 1 1 -0 -0 -3 -3 -2 -2 -1 -0 -0 -1 -1 -0 -2 -3 -3 -2 -5 -4 -3 -4 -5 -4 -1 0 1 0 -0 -1 -0 -0 -1 -1 -2 -2 -2 -2 -2 -2 -2 -2 -2 -2 -3 -4
-1 -1 -1 -1 -0 -0 -1 -1 -0 -0 -1 -2 -3 -3 -2 -1 -1 -1 -0 -1 -1 -1 -0 -2 -3 -6 -5 -4 -4 -5 -1 -0 0 0 -0 -1 -1 -1 -1 -1 -1 -2 -2 -2 -2 -2 -2 -2 -2 -2 -2 -4 -4 -5
-1 -1 -1 -1 -1 -1 -1 -1 -1 -2 -3 -3 -2 -3 -2 -2 -2 -2 -2 -1 -1 -1 -0 -2 -7 -5 -5 -4 -1 0 0 0 -0 -1 -2 -2 -1 -1 -2 -2 -2 -2 -2 -2 -2 -2 -2 -3 -3 -3 -3 -5 -6 -6
-2 -1 -1 -1 -1 -0 -1 -2 -1 -1 -2 -3 -3 -2 -2 -2 -2 -2 -2 -2 -2 -2 -2 -3 -4 -2 -1 1 1 -0 -0 -1 -1 -2 -1 -1 -2 -2 -2 -2 -2 -2 -2 -2 -2 -2 -3 -3 -4 -4 -6 -6 -6 -6
-2 -2 -1 -2 -2 -1 -2 -3 -3 -3 -3 -3 -3 -3 -3 -3 -3 -3 -3 -4 -3 -3 -4 -1 -1 0 0 -0 -1 -1 -1 -1 -1 -2 -2 -2 -2 -2 -2 -2 -2 -2 -2 -2 -2 -3 -3 -4 -4 -5 -6 -6 -6 -6
-3 -2 -2 -2 -3 -3 -3 -3 -3 -3 -3 -3 -3 -3 -3 -4 -5 -5 -5 -5 -5 -3 -2 -1 0 -0 -0 -1 -1 -1 -1 -2 -2 -2 -2 -2 -2 -2 -2 -2 -2 -2 -2 -2 -3 -3 -4 -4 -4 -5 -6 -7 -7 -6
-2 -2 -3 -2 -2 -3 -5 -4 -4 -4 -5 -5 -4 -5 -5 -4 -5 -6 -6 -5 -5 -0 -0 -0 -0 -1 -1 -1 -1 -1 -2 -2 -2 -2 -2 -2 -2 -2 -2 -2 -2 -2 -2 -3 -4 -4 -4 -5 -6 -7 -7 -7 -7 -7
-2 -3 -3 -3 -4 -6 -5 -4 -5 -5 -5 -7 -11 -8 -9 -6 -7 -8 -7 -6 -1 -0 -0 -1 -1 -1 -1 -1 -1 -1 -2 -2 -2 -2 -2 -2 -2 -2 -2 -2 -2 -2 -3 -4 -4 -5 -5 -7 -7 -7 -8 -8 -8 -7
-2 -5 -4 -7 -6 -7 -13 -6 -6 -5 -9 -13 -9 -10 -8 -7 -11 -8 -8 -5 -0 -0 -1 -1 -1 -1 -1 -1 -1 -2 -2 -2 -3 -2 -2 -2 -3 -3 -3 -3 -3 -3 -4 -5 -5 -6 -6 -7 -8 -8 -8 -8 -8 -7
-8 -6 -6 -7 -7 -9 -12 -8 -7 -7 -12 -10 -9 -9 -8 -11 -11 -8 -7 -1 -0 -1 -1 -1 -1 -2 -2 -2 -2 -2 -2 -3 -3 -3 -2 -3 -3 -4 -4 -4 -4 -4 -5 -6 -6 -7 -7 -8 -9 -8 -8 -8 -8 -8
-8 -6 -6 -6 -6 -6 -10 -10 -10 -11 -11 -11 -13 -13 -14 -10 -11 -6 -2 -1 -1 -1 -2 -2 -2 -2 -2 -2 -2 -3 -3 -3 -4 -4 -4 -4 -5 -5 -6 -6 -6 -6 -7 -7 -8 -8 -9 -9 -9 -9 -8 -8 -8 -7
-5 -6 -8 -7 -6 -6 -10 -12 -15 -11 -12 -6 -8 -10 -9 -9 -7 -2 -1 -2 -2 -2 -3 -3 -3 -3 -3 -3 -3 -4 -4 -4 -5 -5 -6 -6 -6 -6 -6 -7 -7 -7 -7 -8 -9 -9 -9 -9 -9 -8 -8 -8 -8 -8
-5 -5 -5 -8 -9 -8 -6 -7 -7 -4 -3 -4 -8 -11 -5 -3 -3 -3 -3 -3 -4 -4 -5 -5 -4 -4 -5 -5 -6 -6 -6 -6 -6 -6 -6 -6 -7 -7 -7 -8 -8 -8 -8 -8 -9 -9 -9 -9 -9 -9 -9 -9 -9 -9
-7 -6 -6 -8 -10 -10 -3 -3 -3 -2 -3 -3 -3 -3 -3 -4 -6 -7 -7 -7 -7 -8 -9 -9 -10 -10 -9 -9 -8 -8 -8 -8 -8 -8 -8 -8 -8 -8 -9 -9 -9 -9 -9 -9 -9 -9 -9 -9 -9 -9 -9 -9 -9 -9
-6 -7 -6 -6 -6 -4 -3 -3 -3 -4 -4 -4 -4 -4 -4 -6 -8 -10 -11 -11 -12 -12 -11 -10 -10 -11 -11 -10 -10 -10 -10 -10 -10 -10 -10 -10 -10 -10 -10 -10 -10 -10 -10 -10 -9 -9 -9 -10 -10 -10 -10 -11 -11 -11
-6 -7 -7 -10 -5 -4 -5 -4 -4 -4 -4 -4 -4 -5 -6 -8 -11 -13 -14 -14 -13 -12 -13 -13 -13 -13 -13 -13 -13 -12 -12 -12 -12 -11 -11 -11 -11 -11 -11 -11 -10 -10 -10 -10 -10 -11 -11 -11 -11 -11 -12 -12 -12 -12
-9 -9 -9 -8 -6 -6 -6 -5 -5 -6 -6 -6 -7 -9 -10 -12 -16 -16 -16 -16 -15 -15 -15 -15 -15 -15 -14 -14 -13 -13 -13 -13 -13 -13 -13 -12 -12 -12 -12 -12 -11 -11 -11 -11 -12 -12 -12 -12 -12 -12 -13 -13 -13 -14

GFSWCAN_850_temp_018.txt.gz
Temp
5 5 5 5 6 6 6 7 7 8 9 9 9 10 10 11 11 12 13 13 14 13 11 11 12 11 11 12 12 9 10 8 7 7 6 7 7 9 10 11 9 10 8 6 6 6 7 10 11 8 9 8 8 6
4 5 5 5 6 6 6 6 7 7 8 8 9 9 9 10 11 11 12 12 13 13 11 11 11 12 12 12 11 8 11 10 10 8 6 5 5 4 7 10 11 10 11 11 10 11 12 11 10 9 8 7 4 3
3 4 5 6 5 6 6 6 6 7 7 7 8 8 9 9 10 11 11 11 12 11 10 10 10 10 11 11 11 10 9 9 9 9 7 5 6 8 6 8 8 12 10 9 9 11 11 10 9 7 5 3 3 2
3 3 4 5 5 6 6 6 6 6 6 7 7 7 8 8 9 10 10 10 11 11 10 8 9 9 10 10 10 10 11 10 9 8 5 3 6 9 8 10 10 11 10 10 10 10 9 9 5 4 3 2 2 3
3 3 4 4 5 6 5 5 5 6 6 6 6 7 7 7 8 8 9 9 10 10 8 8 8 9 9 9 9 9 9 9 8 5 4 6 6 5 4 4 6 10 11 9 8 9 6 4 3 3 2 3 3 2
3 3 3 3 4 5 5 5 5 5 5 5 5 6 7 7 7 7 8 8 9 9 9 7 7 7 8 8 8 8 7 7 7 6 5 7 7 7 4 5 8 8 8 8 6 6 5 3 2 2 2 2 2 2
2 2 3 3 3 4 5 5 5 5 5 5 5 5 6 6 6 7 7 8 7 8 8 6 5 5 6 6 6 6 6 6 6 6 5 6 5 6 2 5 7 6 5 5 5 4 3 2 2 2 2 2 2 2
2 2 2 2 2 3 4 5 5 5 5 5 5 5 5 6 6 6 7 7 7 7 7 4 4 4 5 4 5 5 5 5 5 5 4 4 4 4 4 5 4 3 3 3 3 3 3 2 2 3 2 2 2 2
2 2 2 2 1 2 3 4 5 5 5 5 5 5 5 6 6 6 6 7 7 7 5 4 4 4 4 2 3 3 4 4 3 2 2 3 3 4 5 3 3 3 3 2 2 3 3 2 2 2 2 1 1 0
1 1 2 2 2 1 2 3 4 5 5 5 5 5 5 5 5 5 5 5 5 5 5 3 3 5 4 2 2 3 2 3 4 2 2 1 3 1 2 2 2 2 2 2 2 2 2 1 1 0 0 -0 -1 -1
1 1 1 2 2 1 1 2 4 4 4 4 4 3 3 3 4 4 3 3 2 1 1 1 2 2 2 4 3 2 2 2 3 3 3 4 4 3 1 1 1 2 1 1 1 1 1 0 -0 -1 -1 -2 -1 -2
1 1 1 1 1 1 1 1 1 2 1 2 2 1 2 2 1 1 1 -0 0 3 -0 1 1 1 2 2 1 -0 2 1 3 1 1 3 5 2 1 1 2 1 1 1 0 0 -0 -1 -1 -1 -1 -2 -2 -2
0 1 1 1 1 1 1 0 0 0 0 0 1 -0 -0 -1 2 3 3 2 2 0 0 0 -0 1 1 1 0 1 3 3 0 1 3 5 3 2 1 1 1 0 0 1 1 -0 -1 -1 -1 -2 -2 -2 -2 -2
-0 0 0 0 0 1 1 1 1 0 0 -0 -0 1 1 1 2 2 3 2 -0 0 -0 1 -0 1 -0 0 -0 2 0 1 1 2 3 3 2 2 1 0 0 0 0 0 -0 -1 -1 -1 -1 -2 -2 -2 -2 -2
-1 -0 -1 0 0 1 1 1 1 1 0 -0 -0 1 1 -2 -1 -1 -1 -1 -0 -0 0 -0 -1 0 -0 -0 0 -0 -0 1 3 3 3 2 1 0 0 0 -0 0 0 -0 -1 -1 -2 -2 -2 -2 -2 -2 -2 -2
-1 -0 -0 -0 0 0 0 0 0 0 0 0 -1 -1 -3 -1 -1 -1 -1 -1 -0 -0 0 -0 -0 0 0 0 -0 1 2 2 3 2 1 0 0 0 -0 -0 0 -0 -1 -1 -1 -2 -2 -2 -2 -2 -2 -2 -2 -2
-1 -1 -0 -0 -0 0 0 -0 0 1 -0 -1 -3 -2 -2 -1 -0 -1 -1 -1 -0 -0 0 -0 1 1 -2 -0 0 0 1 1 0 -0 0 0 0 -0 -0 -0 -0 -0 -1 -1 -2 -2 -2 -2 -2 -2 -2 -2 -2 -2
-2 -1 -1 -1 -1 -0 -0 -0 -0 -0 -2 -3 -2 -2 -2 -2 -1 -1 -1 -1 -1 -1 -0 0 -2 -1 0 1 1 1 -1 -1 -0 -0 -0 -0 -1 -1 -1 -1 -1 -1 -1 -2 -2 -2 -2 -2 -2 -3 -3 -3 -3 -4
-2 -1 -1 -1 -1 -0 -1 -1 -1 -2 -3 -3 -3 -3 -2 -2 -1 -1 -1 -1 -1 -1 -0 -1 -1 0 0 -1 -0 -1 -0 0 -0 -0 -1 -1 -1 -1 -1 -1 -1 -2 -2 -2 -2 -2 -2 -2 -2 -3 -3 -5 -6 -6
-2 -1 -1 -1 -1 -2 -2 -2 -1 -1 -2 -3 -3 -3 -3 -3 -2 -2 -2 -2 -2 -1 -2 -1 -0 -0 -0 1 1 1 0 -0 -1 -2 -2 -2 -2 -2 -2 -2 -2 -2 -3 -2 -2 -2 -2 -2 -3 -4 -4 -5 -6 -6
-2 -1 -1 -1 -2 -1 -2 -2 -2 -3 -3 -3 -4 -3 -4 -4 -4 -4 -4 -3 -3 -2 -1 -1 -1 0 0 -0 -0 -1 -1 -1 -2 -2 -2 -2 -3 -3 -2 -2 -2 -2 -2 -2 -2 -2 -2 -3 -3 -4 -4 -5 -6 -7
-2 -2 -2 -2 -3 -2 -3 -3 -4 -3 -4 -4 -4 -4 -4 -4 -5 -6 -5 -4 -4 -3 -2 -1 -1 -1 -1 -1 -1 -1 -1 -1 -1 -2 -2 -2 -2 -2 -2 -2 -2 -2 -2 -2 -2 -2 -3 -3 -4 -4 -5 -7 -7 -7
-2 -2 -2 -3 -4 -3 -5 -4 -4 -4 -3 -4 -4 -3 -4 -4 -6 -7 -5 -4 -4 -2 -1 -1 -0 -1 -1 -1 -1 -1 -1 -1 -2 -2 -2 -2 -2 -2 -2 -2 -2 -2 -2 -2 -3 -3 -4 -4 -4 -5 -7 -7 -8 -8
-2 -3 -4 -4 -4 -5 -5 -5 -5 -5 -5 -4 -3 -3 -4 -5 -7 -6 -5 -5 -2 -0 -1 -1 -1 -1 -1 -1 -1 -1 -1 -1 -2 -2 -3 -2 -2 -2 -3 -2 -3 -3 -3 -3 -4 -4 -4 -5 -6 -7 -7 -8 -8 -8
-2 -5 -4 -6 -6 -6 -5 -4 -5 -4 -4 -6 -5 -4 -6 -8 -5 -5 -4 -3 -2 -1 -1 -1 -1 -1 -2 -2 -2 -2 -1 -2 -2 -3 -3 -3 -3 -3 -3 -4 -5 -4 -4 -4 -5 -5 -6 -6 -7 -8 -8 -8 -8 -8
-5 -6 -5 -6 -6 -4 -5 -5 -5 -5 -5 -6 -6 -8 -9 -5 -4 -2 -2 -3 -2 -2 -2 -2 -2 -2 -3 -3 -3 -3 -3 -2 -3 -3 -3 -3 -4 -4 -5 -6 -6 -6 -6 -6 -6 -7 -7 -7 -8 -9 -8 -8 -8 -8
-6 -5 -6 -6 -6 -7 -8 -9 -9 -7 -7 -6 -4 -7 -5 -4 -3 -2 -4 -3 -4 -3 -3 -3 -4 -4 -4 -3 -3 -3 -3 -4 -4 -4 -4 -4 -5 -6 -6 -6 -7 -7 -7 -7 -7 -8 -8 -9 -9 -9 -9 -9 -9 -9
-6 -6 -6 -7 -7 -7 -6 -6 -6 -6 -4 -6 -6 -5 -4 -3 -2 -6 -5 -4 -4 -4 -4 -4 -5 -5 -6 -6 -6 -6 -6 -6 -6 -5 -5 -5 -6 -6 -6 -7 -7 -7 -8 -8 -8 -8 -9 -9 -9 -9 -9 -9 -9 -9
-6 -6 -6 -7 -8 -8 -6 -5 -4 -5 -4 -5 -3 -3 -4 -6 -6 -6 -6 -6 -6 -6 -6 -6 -7 -7 -8 -8 -9 -9 -9 -9 -8 -8 -9 -8 -7 -8 -8 -8 -8 -8 -8 -9 -9 -9 -9 -9 -9 -9 -9 -10 -10 -10
-6 -6 -7 -8 -7 -5 -4 -4 -4 -3 -3 -4 -4 -4 -5 -7 -8 -9 -10 -10 -9 -9 -10 -11 -11 -11 -11 -11 -11 -11 -12 -11 -11 -11 -11 -11 -10 -10 -10 -10 -10 -10 -10 -10 -10 -9 -9 -9 -10 -10 -10 -10 -10 -11
-7 -7 -7 -7 -6 -5 -4 -4 -4 -4 -4 -4 -4 -5 -6 -9 -11 -12 -12 -12 -12 -12 -12 -12 -12 -13 -13 -13 -13 -13 -13 -13 -13 -13 -12 -12 -12 -12 -11 -11 -11 -11 -11 -11 -10 -10 -10 -10 -11 -11 -11 -11 -12 -12
-8 -7 -7 -6 -6 -5 -5 -5 -5 -5 -5 -5 -6 -7 -10 -12 -14 -16 -15 -14 -13 -13 -13 -14 -14 -14 -15 -15 -15 -14 -14 -14 -14 -13 -13 -13 -13 -13 -12 -12 -12 -12 -12 -12 -11 -11 -12 -12 -12 -12 -12 -12 -13 -13
-9 -9 -10 -10 -8 -6 -7 -6 -7 -8 -8 -9 -11 -11 -12 -14 -15 -16 -15 -15 -15 -15 -15 -14 -15 -15 -15 -15 -15 -15 -15 -15 -15 -14 -14 -14 -14 -14 -13 -13 -13 -13 -13 -13 -13 -13 -13 -13 -13 -13 -13 -14 -14 -14

GFSWCAN_850_temp_021.txt.gz
Temp
5 5 5 5 6 7 7 8 9 9 10 10 10 11 12 12 12 13 13 14 14 12 11 12 12 13 13 15 13 13 12 11 11 8 8 10 8 12 12 14 11 9 8 7 8 7 8 13 13 9 10 9 8 6
6 5 5 5 6 6 7 7 8 8 9 9 9 10 11 11 12 12 12 13 14 13 11 11 12 13 13 13 14 11 14 12 13 11 9 8 6 7 9 11 15 12 13 12 12 12 14 13 12 10 9 8 6 4
5 5 5 5 5 6 6 7 7 7 8 8 9 9 10 10 11 12 12 12 13 12 10 11 11 12 12 12 12 12 11 13 12 11 9 7 6 9 7 10 12 14 14 12 11 13 13 12 10 7 6 5 4 4
4 4 5 5 5 5 5 6 6 7 7 7 8 8 9 9 10 11 10 11 12 11 10 10 10 10 11 11 11 11 11 11 10 9 6 4 7 12 9 12 12 13 12 11 11 12 11 9 6 5 4 3 4 5
3 4 4 5 5 5 6 6 6 6 6 7 7 7 8 8 9 10 10 10 11 10 9 9 8 10 10 10 10 10 10 9 8 6 4 6 10 9 8 7 10 11 12 11 9 10 7 6 5 5 4 5 5 4
3 3 3 4 4 5 5 6 5 6 6 6 6 7 7 8 8 8 9 9 10 10 10 9 7 7 9 9 8 8 9 9 9 8 6 9 10 10 6 6 10 11 11 11 10 7 6 5 4 4 5 4 4 4
3 3 3 4 4 4 5 6 5 5 5 5 5 5 6 7 7 8 9 8 9 9 9 7 8 5 6 7 6 7 6 7 7 8 6 7 9 8 5 6 10 9 9 8 6 5 3 4 4 4 4 4 4 4
2 2 3 3 3 4 4 5 6 5 5 5 5 5 5 6 6 7 8 8 8 8 8 5 5 5 5 5 5 5 5 5 5 6 4 5 6 5 5 7 8 8 6 5 4 4 5 4 4 4 4 4 3 3
2 2 2 2 2 3 3 4 5 5 5 5 5 5 5 5 5 6 7 7 7 7 7 4 5 5 4 3 3 3 4 5 4 3 3 4 4 5 7 7 7 6 5 5 5 5 5 4 4 4 3 3 2 2
1 2 2 2 2 3 3 3 4 5 5 5 5 5 6 5 6 6 6 6 6 6 5 4 6 5 5 3 3 3 3 5 4 4 2 1 3 4 5 5 6 5 4 4 4 4 4 3 3 3 2 2 1 -0
1 1 2 2 2 2 2 3 4 4 4 4 4 4 3 4 5 5 5 4 4 2 2 2 4 4 3 4 3 3 3 2 4 4 4 5 5 6 4 4 3 3 3 4 3 3 3 2 2 2 1 -0 -1 -2
1 1 2 2 2 1 1 2 3 3 3 3 3 2 2 2 2 3 2 1 1 3 1 1 1 2 2 3 2 0 2 3 4 4 3 4 7 6 4 3 3 3 3 3 2 2 2 1 1 -0 -1 -2 -2 -2
0 0 1 1 0 1 1 1 2 2 2 1 1 1 0 -0 2 3 3 3 3 0 0 0 0 1 1 1 0 1 3 4 3 2 4 7 6 4 4 3 3 3 1 1 1 1 1 0 -0 -1 -1 -1 -2 -2
0 0 0 0 1 1 0 1 1 1 1 0 -0 1 1 2 2 2 3 3 0 0 1 1 -0 0 -0 0 1 3 2 3 2 3 4 6 5 4 4 3 2 2 1 1 1 1 1 0 -1 -1 -1 -2 -2 -2
-0 -0 0 -0 -0 1 1 0 1 1 0 0 0 1 1 -1 -1 -1 -0 -0 -0 0 1 1 1 1 1 1 1 1 1 3 4 5 5 5 4 3 2 1 1 1 1 1 -0 -1 -0 -1 -1 -2 -2 -2 -2 -2
-1 -0 -0 -0 -0 0 0 0 1 1 1 0 -1 -0 -1 -0 -1 -1 -0 -1 -0 0 0 0 1 2 1 2 1 2 3 4 4 4 3 2 1 1 0 1 1 1 0 -0 -0 -1 -1 -1 -2 -2 -2 -2 -2 -2
-1 -1 -1 -0 -0 -0 -0 0 -0 -0 -0 -0 -1 -1 -1 -0 -0 -1 -1 -0 -0 -0 1 1 1 1 -1 1 2 3 3 3 2 2 2 1 0 0 0 -0 0 -0 -1 -1 -1 -2 -2 -2 -2 -2 -2 -3 -3 -4
-2 -1 -1 -1 -0 -1 -0 -0 -1 -0 -1 -1 0 -2 -2 -1 -1 -1 -1 -1 -0 -1 -1 1 0 0 1 2 3 3 2 1 1 1 1 0 -0 -1 -1 -1 -1 -1 -2 -2 -2 -2 -2 -2 -2 -3 -2 -3 -4 -3
-2 -1 -1 -1 -1 -1 -1 -1 -1 -0 -2 -2 -3 -3 -3 -2 -2 -1 -1 -1 -1 -1 -0 -0 0 1 2 2 2 1 0 1 1 1 0 -0 -1 -0 -0 -1 -1 -1 -2 -2 -2 -3 -3 -3 -3 -3 -3 -3 -4 -5
-2 -2 -1 -1 -1 -1 -2 -2 -1 -0 0 -1 -2 -2 -3 -3 -3 -2 -2 -2 -1 -1 -1 0 1 2 1 1 1 1 1 -0 -0 -0 -0 -0 -0 -1 -2 -2 -2 -2 -2 -2 -3 -3 -3 -3 -3 -3 -3 -4 -4 -5
-2 -2 -2 -1 -1 -3 -2 -3 -3 -2 -2 -1 -2 -1 -4 -4 -3 -3 -3 -3 -2 -1 1 1 0 -0 -0 0 -0 -0 -1 -1 -1 -1 -1 -1 -1 -2 -2 -2 -2 -3 -3 -2 -2 -2 -2 -3 -3 -4 -4 -4 -4 -5
-2 -2 -2 -1 -3 -3 -3 -3 -2 -3 -2 -2 -2 -2 -3 -3 -4 -4 -4 -3 -2 -1 0 0 0 -0 -1 -1 -1 -1 -1 -1 -1 -2 -2 -2 -3 -2 -2 -2 -2 -2 -2 -3 -3 -3 -3 -4 -4 -4 -4 -4 -6 -6
-2 -3 -2 -2 -3 -3 -4 -4 -3 -3 -1 -2 -3 -2 -2 -3 -4 -6 -4 -2 -1 -1 -1 -1 -1 -2 -1 -1 -1 -1 -1 -1 -1 -2 -2 -2 -2 -3 -3 -3 -3 -3 -3 -4 -4 -4 -4 -4 -5 -5 -5 -6 -6 -7
-2 -3 -4 -4 -3 -4 -4 -4 -3 -3 -3 -2 -1 -2 -2 -3 -6 -4 -2 -1 -1 -1 -2 -2 -2 -1 -1 -1 -1 -1 -1 -2 -2 -2 -2 -3 -3 -2 -3 -3 -4 -4 -4 -5 -5 -5 -5 -5 -6 -6 -6 -7 -7 -7
-3 -5 -4 -5 -5 -4 -2 -3 -3 -2 -2 -3 -2 -2 -3 -5 -3 -2 -2 -0 -2 -3 -3 -3 -3 -2 -1 -1 -2 -2 -2 -3 -3 -2 -2 -3 -3 -3 -4 -4 -4 -5 -5 -6 -6 -6 -6 -6 -7 -7 -8 -8 -8 -8
-3 -6 -4 -4 -4 -2 -2 -3 -3 -2 -2 -3 -3 -4 -5 -3 -2 -1 0 -3 -4 -6 -5 -5 -5 -4 -3 -3 -4 -4 -5 -5 -6 -5 -5 -4 -5 -5 -5 -6 -6 -5 -6 -6 -6 -7 -7 -7 -8 -8 -8 -8 -8 -8
-3 -4 -5 -6 -5 -5 -4 -5 -4 -3 -3 -3 -2 -4 -3 -2 -1 -1 -5 -6 -7 -6 -6 -7 -6 -7 -7 -8 -8 -7 -7 -7 -7 -7 -7 -6 -6 -6 -7 -7 -7 -7 -7 -7 -7 -8 -8 -8 -8 -8 -8 -9 -9 -9
-4 -4 -4 -5 -5 -4 -3 -3 -3 -3 -2 -2 -2 -3 -2 -1 -1 -7 -9 -8 -7 -7 -8 -7 -7 -7 -8 -9 -9 -10 -9 -9 -8 -8 -8 -8 -7 -7 -8 -9 -9 -9 -9 -9 -9 -8 -9 -9 -9 -9 -10 -10 -10 -10
-5 -5 -5 -6 -5 -5 -4 -2 -2 -2 -2 -3 -2 -1 -2 -8 -10 -11 -9 -9 -8 -8 -8 -8 -9 -9 -11 -12 -12 -12 -12 -11 -11 -11 -12 -11 -12 -10 -10 -10 -10 -10 -10 -10 -10 -10 -10 -10 -10 -10 -10 -10 -10 -11
-6 -6 -5 -5 -5 -3 -3 -4 -4 -4 -4 -4 -4 -5 -6 -10 -10 -10 -11 -11 -10 -10 -11 -12 -12 -13 -14 -14 -14 -14 -14 -13 -13 -13 -14 -14 -14 -13 -12 -12 -12 -11 -11 -11 -11 -11 -11 -11 -11 -12 -11 -11 -11 -12
-7 -6 -5 -4 -4 -4 -5 -4 -4 -4 -4 -5 -5 -5 -8 -11 -13 -12 -12 -12 -12 -12 -12 -13 -14 -15 -15 -15 -15 -15 -15 -15 -14 -14 -14 -14 -14 -13 -13 -13 -13 -13 -12 -12 -12 -12 -12 -12 -13 -13 -12 -12 -12 -12
-6 -5 -5 -4 -4 -6 -5 -5 -6 -6 -5 -6 -6 -8 -10 -11 -11 -15 -14 -14 -15 -14 -13 -14 -14 -15 -14 -16 -16 -16 -16 -16 -16 -15 -15 -15 -15 -14 -14 -14 -14 -14 -14 -13 -13 -13 -13 -13 -13 -13 -14 -13 -13 -14
-8 -8 -7 -7 -6 -5 -7 -6 -5 -5 -6 -6 -8 -10 -11 -10 -12 -16 -15 -14 -14 -14 -14 -14 -14 -14 -15 -15 -16 -17 -17 -17 -16 -16 -16 -16 -16 -16 -16 -15 -15 -15 -15 -15 -15 -15 -14 -14 -14 -15 -14 -14 -15 -15

GFSWCAN_850_temp_027.txt.gz
Temp
6 6 6 7 7 8 9 9 9 10 10 11 12 12 12 13 13 14 14 14 15 14 13 14 15 16 16 14 7 12 9 10 5 6 4 4 4 5 9 9 6 4 4 4 6 7 4 12 11 8 7 8 7 6
6 6 6 6 7 8 8 9 9 9 10 11 11 11 12 12 13 13 14 14 14 14 12 12 13 14 15 14 14 13 13 11 10 5 3 4 4 5 5 6 10 8 6 5 6 5 10 11 11 10 9 7 6 6
5 5 5 6 6 7 7 8 8 9 9 10 10 11 11 12 12 13 13 13 14 13 11 12 12 13 13 14 14 13 13 13 12 12 7 6 4 4 3 5 11 11 11 6 8 10 10 9 8 8 7 7 7 6
5 5 5 5 5 6 7 7 8 8 9 9 10 10 11 11 12 12 12 12 13 12 9 10 11 12 12 13 13 14 14 13 12 11 5 4 3 8 3 6 5 9 11 10 7 10 8 7 8 7 6 6 6 5
5 5 5 5 5 5 6 7 7 8 8 9 9 10 10 10 11 11 11 12 12 12 8 9 10 10 11 12 12 12 12 12 11 8 3 3 6 6 6 4 3 11 9 6 4 11 10 7 6 7 6 5 5 5
5 5 5 5 5 5 4 6 6 7 7 8 8 9 9 10 10 11 11 11 11 11 12 4 8 8 9 10 10 10 10 10 10 10 6 8 10 9 4 5 9 11 12 11 9 8 9 7 6 5 6 5 5 5
3 4 5 5 5 5 5 5 6 6 6 7 7 8 8 9 9 10 10 9 10 10 11 5 6 7 8 9 9 9 9 9 9 9 8 7 8 9 3 4 8 11 11 10 9 8 6 6 5 5 5 5 5 4
1 2 3 4 5 5 4 5 5 5 6 6 6 7 7 8 8 8 9 9 9 10 10 3 4 6 7 7 7 6 8 8 7 7 6 6 7 5 4 6 9 10 10 9 7 6 6 6 5 5 5 4 4 3
2 2 3 3 4 4 5 5 5 5 5 5 5 5 6 7 7 7 7 8 8 9 7 4 2 2 6 4 5 5 6 3 5 4 4 5 2 4 5 7 8 9 8 7 6 5 5 5 5 4 4 3 3 2
2 3 3 4 4 4 5 5 6 6 5 5 5 5 5 6 7 7 7 7 7 7 6 4 5 3 5 4 3 4 4 2 3 3 3 1 3 5 7 7 8 8 8 7 6 5 5 4 4 3 3 2 2 2
2 2 3 3 4 5 5 4 5 5 5 5 5 5 5 5 6 6 6 4 4 4 4 4 5 4 4 2 2 3 2 2 4 2 3 3 3 4 7 6 7 7 6 5 3 3 3 3 3 2 2 2 1 1
2 2 2 2 3 3 3 3 3 4 4 4 5 4 4 4 4 3 2 2 2 3 2 2 3 4 4 4 3 2 2 2 4 3 2 3 2 5 5 5 4 4 2 3 3 3 2 2 2 2 1 1 0 -1
1 2 2 1 2 2 2 3 3 3 3 3 3 3 2 0 2 3 3 2 2 1 1 1 1 2 2 3 1 1 2 3 2 2 2 1 5 4 4 4 4 4 3 3 2 2 2 2 1 1 0 -0 -1 -1
1 1 1 1 1 1 1 2 2 2 3 2 1 1 1 1 1 0 1 0 0 1 0 1 0 1 0 1 0 2 1 1 2 1 0 2 3 2 4 4 3 3 3 2 2 2 1 1 0 -0 -0 -1 -1 -1
0 0 1 1 1 1 2 2 2 2 1 0 1 1 0 -1 -1 -1 -1 -0 0 0 0 0 -0 0 -0 0 0 0 1 2 2 2 0 1 2 3 3 3 2 2 2 2 1 1 0 -0 -0 -0 -1 -1 -1 -2
-0 -0 0 0 1 1 2 1 2 2 1 -0 -1 -1 -1 -0 -1 -1 -1 -1 -0 -0 -0 0 -0 1 0 0 1 2 2 2 1 0 0 1 2 2 1 2 1 1 1 1 0 -0 -0 -1 -1 -1 -1 -1 -2 -2
-1 -2 -0 -1 0 1 1 1 1 1 0 0 -1 -1 -0 -0 -1 -0 -0 -1 -0 0 -0 0 1 -0 -1 0 1 0 1 0 2 2 2 2 2 1 1 1 1 0 0 -0 -0 -1 -1 -1 -1 -1 -1 -1 -2 -2
-1 -2 -2 -1 0 0 1 1 0 0 0 -0 -0 -1 -1 -1 -1 -1 -1 -1 -0 -0 0 -0 0 -0 -0 0 0 -0 1 1 1 1 1 1 1 1 1 0 0 0 -0 -1 -1 -1 -1 -1 -2 -1 -2 -2 -2 -2
-2 -2 -2 -1 -1 -0 -0 0 -0 0 -1 -1 -2 -2 -2 -2 -2 -2 -2 -1 -0 1 0 0 -1 -1 -1 1 1 1 1 1 1 1 1 1 0 0 0 -0 -0 -1 -1 -1 -2 -2 -2 -2 -2 -2 -2 -3 -3 -3
-2 -2 -1 -1 -1 -1 -0 -1 -0 0 -0 -1 -2 -2 -2 -3 -3 -2 -2 -1 -0 -0 -0 -3 -1 1 1 1 1 1 1 1 1 0 0 -0 -0 -1 -1 -1 -1 -1 -2 -2 -2 -2 -2 -2 -2 -2 -3 -3 -4 -4
-3 -3 -3 -2 -2 -1 -1 -1 -1 -1 -0 -1 -1 -2 -4 -4 -3 -3 -2 -1 -0 -0 1 1 1 1 1 0 0 0 -0 -0 -1 -1 -1 -1 -1 -1 -1 -2 -2 -2 -2 -2 -2 -2 -2 -3 -3 -3 -4 -4 -4 -4
-3 -3 -3 -2 -2 -3 -2 -1 -2 -1 -1 -1 -1 -2 -3 -3 -3 -3 -3 -2 -1 -0 0 1 1 1 0 -0 -1 -1 -1 -1 -1 -1 -2 -2 -2 -2 -2 -2 -2 -2 -2 -3 -3 -3 -3 -3 -4 -5 -5 -5 -5 -6
-3 -3 -3 -2 -3 -3 -3 -2 -2 -2 -2 -2 -2 -2 -2 -3 -3 -4 -3 -2 -1 -1 -0 -0 -0 -0 -0 -1 -1 -1 -2 -2 -2 -2 -2 -2 -3 -3 -3 -3 -4 -4 -4 -4 -5 -5 -5 -5 -5 -5 -6 -6 -6 -7
-3 -3 -3 -3 -3 -3 -3 -3 -3 -2 -2 -1 -2 -3 -2 -2 -4 -4 -5 -1 -3 -2 -1 -2 -2 -1 -1 -2 -2 -3 -3 -3 -3 -3 -3 -3 -3 -3 -5 -6 -6 -6 -7 -7 -7 -7 -7 -6 -6 -6 -6 -6 -7 -7
-3 -4 -4 -4 -4 -4 -4 -3 -2 -3 -4 -3 -4 -5 -4 -4 -7 -7 -6 -3 -4 -4 -4 -4 -3 -3 -4 -5 -5 -4 -4 -4 -3 -4 -4 -5 -6 -6 -7 -8 -9 -9 -9 -9 -9 -9 -8 -8 -8 -8 -7 -7 -7 -7
-3 -4 -4 -3 -3 -3 -3 -3 -3 -5 -5 -4 -3 -4 -3 -4 -6 -6 -5 -6 -6 -6 -7 -6 -6 -5 -5 -4 -4 -4 -4 -4 -5 -6 -7 -8 -9 -10 -10 -10 -10 -10 -10 -10 -11 -11 -10 -10 -10 -9 -9 -8 -8 -8
-4 -4 -4 -4 -4 -3 -3 -3 -3 -3 -4 -4 -5 -4 -6 -8 -8 -6 -7 -7 -7 -8 -9 -9 -6 -6 -6 -6 -7 -8 -8 -8 -8 -8 -9 -11 -11 -11 -11 -12 -13 -13 -12 -12 -12 -12 -12 -12 -11 -11 -11 -10 -10 -9
-4 -4 -5 -5 -4 -4 -4 -4 -4 -4 -4 -2 -3 -5 -7 -7 -6 -8 -8 -9 -9 -10 -10 -10 -9 -8 -9 -10 -11 -11 -10 -9 -9 -9 -10 -11 -11 -12 -12 -12 -12 -13 -13 -13 -13 -13 -13 -13 -13 -12 -12 -11 -11 -11
-5 -4 -4 -5 -3 -3 -2 -2 -2 -2 -2 -2 -4 -6 -7 -9 -10 -10 -11 -11 -11 -11 -11 -11 -11 -11 -11 -11 -12 -11 -10 -10 -10 -11 -11 -11 -11 -11 -12 -13 -13 -14 -14 -14 -13 -14 -14 -14 -14 -13 -12 -12 -12 -12
-5 -4 -4 -4 -5 -5 -5 -4 -4 -4 -3 -3 -4 -6 -9 -12 -12 -12 -12 -12 -12 -11 -13 -13 -13 -12 -11 -11 -12 -13 -14 -14 -14 -14 -15 -15 -16 -15 -15 -15 -15 -15 -15 -15 -15 -15 -15 -15 -15 -14 -14 -14 -14 -14
-5 -4 -4 -3 -4 -5 -5 -5 -4 -4 -4 -5 -5 -6 -9 -11 -12 -12 -13 -13 -14 -13 -13 -13 -13 -12 -13 -13 -13 -14 -15 -15 -15 -16 -17 -17 -17 -17 -17 -17 -17 -17 -16 -17 -17 -17 -17 -17 -17 -16 -16 -16 -16 -16
-5 -5 -4 -4 -5 -6 -6 -6 -6 -6 -5 -6 -6 -8 -9 -11 -13 -13 -14 -14 -14 -13 -13 -12 -12 -13 -13 -14 -15 -16 -17 -16 -16 -17 -17 -17 -17 -17 -17 -17 -17 -17 -18 -18 -18 -18 -18 -19 -18 -18 -18 -18 -17 -17
-6 -6 -6 -5 -5 -5 -6 -6 -5 -5 -5 -6 -8 -9 -10 -10 -13 -14 -14 -14 -14 -14 -14 -14 -14 -14 -14 -14 -15 -15 -16 -16 -16 -16 -17 -18 -18 -18 -17 -17 -18 -18 -19 -19 -19 -19 -20 -20 -19 -19 -19 -19 -19 -19

GFSWCAN_850_temp_030.txt.gz
Temp
6 6 6 7 8 8 8 9 9 10 10 11 12 12 13 14 14 15 15 15 15 14 12 13 15 15 14 14 7 11 9 9 4 4 2 5 1 5 6 8 6 5 4 2 1 1 5 9 10 8 8 8 8 7
6 6 7 7 7 8 8 8 9 9 10 11 11 12 12 13 13 14 14 14 15 15 11 12 13 14 15 15 14 12 12 10 10 4 3 4 2 4 4 6 8 8 6 5 6 6 9 11 11 12 11 9 7 7
6 6 6 7 7 7 8 8 9 9 9 10 11 11 12 12 13 14 14 14 14 13 11 12 12 12 13 14 14 13 12 12 11 11 5 2 3 2 4 4 8 9 9 5 6 9 9 11 10 10 9 9 7 7
5 6 6 7 7 7 7 8 9 9 9 10 10 11 11 12 12 13 13 13 14 13 9 10 10 11 12 13 13 14 14 13 12 11 4 3 2 6 2 5 4 8 9 8 5 7 7 8 8 8 7 7 7 6
5 5 6 6 7 6 7 7 8 8 9 9 10 10 11 11 12 12 12 13 13 13 8 9 9 10 11 11 12 13 13 13 11 8 2 3 5 4 2 2 3 9 8 5 5 10 9 9 8 7 7 6 5 5
5 5 5 5 5 6 7 7 7 8 8 9 9 10 10 10 11 11 11 11 12 12 12 4 8 9 10 10 11 11 11 11 10 10 7 8 8 7 4 4 8 10 11 11 10 10 10 10 7 6 6 5 5 5
5 5 5 5 5 5 6 6 7 7 8 8 9 9 9 10 10 11 11 9 10 11 12 5 6 7 8 9 9 9 9 9 9 9 8 8 8 7 3 4 8 11 11 10 10 9 6 6 6 5 5 5 4 4
4 5 5 5 5 5 5 6 6 6 7 7 8 8 8 9 9 9 9 9 10 11 10 1 2 7 7 8 8 8 8 9 8 7 6 6 5 3 4 6 9 9 9 8 8 8 8 6 5 4 3 4 4 4
2 3 4 5 5 4 4 5 6 6 6 6 7 7 8 8 8 8 8 9 9 9 7 3 2 3 6 5 5 6 6 2 4 3 4 4 2 3 5 7 8 8 8 8 6 6 5 4 3 3 4 3 4 3
3 2 3 4 4 5 5 5 5 5 5 5 6 7 7 7 7 7 7 8 8 7 7 3 4 2 5 3 3 3 4 2 3 2 3 2 3 5 7 6 7 7 8 7 5 4 3 2 3 3 3 3 3 2
2 3 3 4 5 5 5 5 5 5 5 5 6 5 5 6 7 7 6 4 4 4 4 4 4 4 3 2 2 4 1 1 3 1 2 3 3 3 5 5 5 6 6 5 4 1 1 1 1 2 3 2 2 1
2 3 3 3 3 4 4 4 4 5 5 5 6 5 5 5 5 2 2 2 2 3 2 3 3 4 4 4 3 2 2 1 3 2 3 3 2 3 3 3 3 3 3 1 0 0 -1 0 2 2 2 1 1 0
1 2 2 1 2 2 3 2 3 4 4 4 4 4 3 1 2 4 4 2 2 1 1 1 1 3 3 3 2 1 2 3 2 2 2 1 3 1 1 1 0 0 1 1 1 1 2 1 1 1 1 0 -0 -1
1 1 1 1 1 2 2 2 3 3 4 3 1 1 1 1 0 0 1 0 0 1 1 1 0 1 0 1 0 2 1 1 3 -0 -1 1 1 0 1 2 2 2 2 2 2 2 1 1 1 0 -0 -1 -1 -2
1 1 1 1 1 2 2 2 3 3 3 0 1 0 -1 -1 -1 -1 -1 -0 -0 -0 0 0 -0 0 -0 0 -0 -0 1 2 1 1 0 -0 -0 0 1 1 2 2 1 1 1 1 1 0 -0 -1 -1 -1 -2 -2
0 0 1 1 1 2 2 3 3 3 1 -1 -1 -1 -1 -1 -1 -1 -1 -1 -0 0 0 0 -0 0 -1 -0 0 1 1 1 -0 -0 -0 -0 -0 0 1 0 1 1 1 1 0 0 -0 -1 -1 -1 -1 -1 -2 -2
0 -1 -0 -0 1 1 2 3 2 2 1 -0 -1 -1 -1 0 -1 -1 -1 -1 -0 -1 -0 -1 -1 -1 -1 -1 -1 -0 -0 -1 0 1 2 1 1 1 0 0 -0 0 0 -0 -1 -1 -1 -1 -2 -2 -2 -2 -2 -2
-1 -2 -1 -0 0 1 2 2 1 0 -1 -1 -1 -1 -1 -1 -1 -1 -1 -1 -0 0 -0 -1 0 -2 -1 -1 -0 -0 1 1 1 1 0 0 1 0 0 0 -0 -0 -1 -1 -1 -1 -2 -2 -2 -2 -2 -2 -3 -3
-2 -2 -2 -1 0 0 1 0 0 -1 -1 -1 -2 -1 -2 -1 -1 -1 -1 -1 0 0 0 0 -3 -3 -3 1 0 0 1 1 1 1 1 0 -0 -0 -0 -0 -1 -1 -1 -2 -2 -2 -2 -2 -2 -2 -3 -3 -3 -3
-3 -2 -1 -1 -1 -0 -0 -0 -0 -0 -1 -2 -2 -2 -3 -2 -2 -2 -2 -1 -0 -0 -0 -4 -3 0 1 1 1 1 1 1 0 0 -0 -1 -1 -1 -1 -2 -2 -2 -2 -2 -2 -2 -3 -3 -3 -3 -3 -4 -4 -4
-3 -3 -3 -2 -1 -1 -1 -1 -0 -1 -1 -1 -2 -2 -3 -3 -3 -2 -1 -1 -1 -1 -0 1 1 1 1 0 0 -0 -0 -0 -0 -1 -1 -2 -2 -2 -2 -2 -2 -2 -2 -3 -3 -3 -3 -4 -4 -5 -5 -5 -5 -5
-3 -3 -3 -2 -2 -2 -2 -2 -1 -1 -1 -2 -2 -2 -3 -3 -3 -3 -2 -2 -2 -1 -0 0 0 0 -0 -0 -1 -1 -1 -2 -2 -2 -2 -2 -2 -2 -3 -3 -3 -3 -4 -4 -5 -6 -7 -7 -6 -6 -6 -6 -5 -6
-4 -4 -3 -3 -2 -3 -3 -2 -2 -2 -4 -2 -2 -3 -3 -3 -3 -4 -3 -3 -2 -2 -1 -1 -1 -1 -1 -2 -2 -2 -2 -3 -2 -3 -3 -3 -3 -3 -3 -3 -4 -5 -6 -7 -8 -10 -9 -8 -8 -8 -7 -7 -7 -7
-3 -3 -4 -4 -4 -4 -3 -3 -3 -3 -2 -3 -3 -4 -3 -3 -4 -4 -7 -3 -4 -3 -2 -1 -2 -2 -3 -3 -3 -4 -4 -4 -4 -4 -3 -3 -3 -4 -6 -7 -8 -9 -9 -10 -10 -10 -9 -9 -9 -9 -9 -9 -8 -8
-3 -3 -4 -4 -4 -4 -6 -6 -4 -5 -6 -4 -3 -6 -5 -4 -9 -10 -9 -5 -5 -5 -4 -3 -2 -3 -4 -5 -6 -5 -5 -4 -4 -4 -5 -6 -7 -7 -8 -9 -10 -10 -10 -10 -10 -11 -11 -11 -11 -11 -11 -11 -10 -10
-5 -4 -5 -4 -4 -5 -6 -6 -6 -4 -5 -4 -6 -4 -4 -6 -7 -8 -6 -6 -6 -6 -5 -6 -6 -6 -6 -6 -6 -6 -6 -6 -6 -7 -8 -9 -9 -10 -10 -11 -11 -11 -12 -12 -12 -12 -12 -12 -12 -12 -12 -11 -11 -11
-6 -7 -4 -4 -4 -4 -4 -4 -3 -4 -5 -6 -6 -7 -7 -7 -11 -7 -8 -7 -8 -8 -7 -9 -8 -8 -7 -8 -8 -8 -8 -8 -8 -9 -10 -10 -11 -12 -12 -12 -13 -13 -13 -13 -13 -14 -14 -14 -14 -14 -13 -13 -13 -12
-4 -4 -6 -4 -4 -4 -4 -4 -5 -4 -4 -4 -4 -5 -5 -8 -8 -9 -9 -9 -9 -8 -9 -10 -10 -9 -9 -9 -10 -10 -10 -10 -11 -11 -11 -12 -12 -12 -12 -13 -13 -14 -14 -14 -14 -15 -15 -15 -15 -15 -15 -14 -13 -13
-5 -5 -4 -5 -4 -4 -4 -4 -4 -4 -4 -4 -6 -8 -9 -10 -11 -11 -10 -10 -10 -10 -11 -11 -11 -11 -11 -11 -11 -11 -10 -10 -10 -10 -11 -11 -11 -12 -13 -13 -14 -14 -14 -14 -14 -15 -16 -16 -17 -16 -16 -15 -15 -15
-5 -5 -4 -4 -6 -5 -6 -5 -5 -5 -5 -4 -5 -8 -10 -12 -12 -12 -12 -12 -12 -11 -12 -12 -12 -12 -12 -12 -12 -12 -12 -12 -12 -13 -14 -14 -14 -14 -15 -15 -15 -15 -15 -16 -16 -16 -17 -17 -17 -17 -17 -17 -17 -17
-5 -4 -4 -4 -5 -5 -6 -6 -6 -6 -6 -6 -6 -7 -11 -13 -13 -13 -13 -13 -13 -13 -13 -13 -13 -13 -13 -12 -12 -13 -13 -14 -15 -15 -15 -16 -16 -16 -16 -16 -16 -17 -17 -17 -18 -18 -19 -19 -19 -19 -19 -19 -18 -18
-5 -5 -5 -5 -6 -6 -7 -7 -6 -6 -6 -6 -7 -9 -11 -12 -13 -14 -15 -14 -14 -14 -14 -14 -14 -13 -13 -13 -13 -14 -15 -15 -16 -16 -16 -16 -16 -17 -17 -17 -17 -17 -17 -18 -18 -19 -19 -19 -20 -20 -20 -20 -20 -20
-6 -6 -6 -6 -6 -6 -6 -6 -6 -6 -6 -7 -9 -10 -11 -11 -14 -14 -15 -15 -14 -14 -14 -14 -13 -13 -14 -14 -14 -15 -15 -16 -17 -17 -17 -17 -18 -17 -18 -17 -17 -18 -18 -18 -19 -19 -19 -20 -20 -20 -20 -20 -20 -20

GFSWCAN_850_temp_033.txt.gz
Temp
6 6 7 7 7 9 9 9 9 9 10 10 11 12 13 14 14 15 15 15 16 13 11 12 13 14 12 13 7 11 9 10 4 4 2 2 0 4 6 7 5 5 3 3 0 1 6 8 9 8 8 10 10 9
6 7 7 7 9 8 9 9 9 9 10 10 11 12 12 13 14 14 15 14 15 15 11 11 12 13 14 14 14 11 12 10 10 2 0 2 1 3 3 5 7 6 6 5 5 6 8 10 11 12 12 12 9 9
7 6 7 9 7 7 8 8 9 9 10 10 11 12 13 13 14 14 14 14 15 12 10 11 11 11 12 14 14 13 12 12 11 11 4 1 3 1 3 3 6 7 8 4 6 9 8 11 11 10 10 10 10 8
7 6 7 6 6 7 8 8 9 9 10 10 11 12 12 13 13 14 14 14 14 13 9 10 10 11 11 12 13 14 15 13 12 10 5 1 1 5 1 4 4 7 7 7 4 7 8 9 10 10 10 8 8 7
6 6 6 6 6 7 8 8 8 9 9 10 11 11 12 12 13 13 13 13 14 14 7 9 10 10 11 11 13 13 13 13 11 8 2 2 4 2 2 1 3 8 7 5 5 11 10 10 12 10 8 7 6 6
5 6 6 6 6 7 7 7 8 8 9 10 10 10 11 11 12 12 13 12 12 13 13 4 8 9 10 10 11 12 11 12 11 10 6 7 7 6 3 4 7 10 11 11 10 10 10 10 10 8 7 6 5 5
5 5 6 6 6 6 6 7 7 8 9 9 9 10 10 11 11 12 11 10 11 12 13 4 4 8 8 9 9 9 10 9 9 8 6 6 6 6 2 3 8 11 11 11 10 9 8 8 7 6 6 5 4 3
5 5 5 5 6 6 6 7 7 7 8 8 9 9 10 10 10 10 9 10 10 12 11 2 1 6 7 8 8 8 8 8 7 5 5 4 4 3 4 5 8 8 8 8 9 8 8 8 6 5 5 4 2 -0
4 5 5 5 5 6 6 6 6 7 7 7 8 8 9 9 9 8 9 9 9 10 8 2 3 3 6 5 5 5 6 2 4 3 3 4 2 4 4 6 7 7 7 7 6 6 6 5 4 3 2 -0 -1 1
4 5 5 5 5 5 4 6 6 6 6 7 7 8 8 8 8 8 8 8 9 8 7 1 2 2 4 3 3 3 3 1 1 2 3 2 3 4 4 5 5 6 7 7 5 3 3 2 0 -0 -1 0 1 2
2 3 4 5 4 4 4 5 5 5 6 7 7 5 6 6 7 7 5 4 3 4 4 2 3 3 3 2 1 2 1 1 3 1 3 1 3 2 2 3 3 3 5 4 4 1 -1 -1 -1 -1 -1 0 1 1
2 2 3 4 4 4 5 5 5 5 5 6 6 5 6 6 5 2 2 2 2 3 2 3 3 3 3 4 2 2 2 1 3 2 2 3 1 1 1 1 1 1 1 0 0 -0 -0 -1 -1 0 1 1 1 0
1 2 2 2 3 3 4 4 4 4 5 5 6 5 4 2 3 4 4 2 2 1 1 2 1 2 3 3 2 1 3 3 2 2 3 1 0 -0 0 0 0 -0 0 1 0 0 0 1 1 1 1 0 0 -1
1 1 2 2 2 3 3 3 4 4 4 4 2 1 1 1 0 0 1 0 -0 1 1 1 0 1 1 1 0 2 1 1 3 1 -1 0 -0 -0 -0 -0 0 -0 -0 0 0 1 1 1 0 -0 -1 -1 -2 -2
1 1 1 2 1 2 2 3 3 4 4 1 1 0 -1 -1 -1 -1 -0 -0 -0 -0 0 1 0 1 -0 0 -0 -0 0 0 -0 -1 -0 -2 -1 -1 -0 -1 -0 0 1 1 0 0 0 -0 -0 -1 -1 -1 -2 -2
1 1 2 1 2 2 3 3 3 4 2 -1 -1 -1 -1 -1 -1 -1 -1 -0 -0 -0 0 0 -0 0 -0 -0 -0 0 1 -1 -3 -1 -1 -1 -1 -0 -0 -1 0 -0 0 0 0 -0 -1 -1 -1 -1 -1 -2 -2 -2
2 0 0 1 2 2 3 3 3 2 -0 -0 -1 -1 -1 -1 -1 -1 -1 -1 -0 -0 -0 -1 -3 -1 -1 -1 -0 -0 -1 -1 -1 0 1 0 -0 0 -0 -0 -0 -1 -1 -1 -1 -1 -1 -2 -2 -2 -2 -2 -2 -2
1 -1 -0 1 2 3 3 2 1 0 -1 -1 -1 -1 -1 -0 -1 -1 -1 -0 -0 -1 -1 -2 -1 -3 -3 -2 -2 -2 0 1 1 1 1 0 0 -0 -0 -1 -1 -1 -1 -2 -2 -2 -2 -2 -2 -3 -3 -3 -3 -3
-1 -1 -0 1 2 2 1 1 0 -2 -2 -2 -2 -1 -1 -1 -1 -1 -1 -1 -0 -0 0 -0 -5 -5 -4 -0 1 -0 0 0 1 0 0 -0 -1 -1 -1 -1 -2 -2 -2 -2 -2 -3 -3 -3 -3 -3 -4 -4 -4 -4
-0 -0 -0 0 1 1 -0 -0 -1 -1 -1 -2 -2 -2 -2 -2 -2 -2 -2 -1 -1 -0 -1 -4 -4 0 1 1 1 1 1 1 1 -0 -1 -1 -2 -2 -2 -2 -2 -3 -3 -2 -2 -2 -2 -3 -4 -4 -5 -5 -6 -6
-0 -0 0 0 0 -0 -1 -1 -0 -1 -1 -2 -3 -2 -3 -3 -3 -2 -1 -1 -1 -1 -1 0 0 0 0 -0 -0 -0 -0 -0 -0 -1 -1 -2 -3 -2 -3 -3 -3 -3 -3 -3 -3 -4 -6 -8 -8 -8 -8 -8 -7 -7
-3 -2 -1 -1 -1 -1 -1 -2 -1 -1 -1 -2 -2 -2 -3 -3 -3 -2 -2 -2 -2 -2 -1 -0 0 -0 -1 -1 -1 -1 -1 -2 -2 -2 -2 -3 -3 -3 -3 -3 -3 -4 -4 -6 -7 -8 -8 -9 -9 -9 -9 -9 -9 -8
-3 -2 -2 -3 -2 -2 -4 -2 -2 -2 -3 -2 -3 -3 -3 -3 -3 -4 -3 -3 -3 -3 -2 -2 -1 -1 -1 -1 -2 -2 -3 -3 -3 -3 -4 -4 -4 -4 -5 -5 -6 -7 -7 -8 -8 -9 -9 -10 -10 -10 -10 -10 -10 -10
-3 -3 -4 -4 -4 -5 -4 -3 -3 -3 -3 -3 -3 -4 -4 -4 -4 -4 -4 -4 -4 -3 -3 -3 -3 -2 -3 -4 -4 -4 -4 -5 -5 -5 -5 -5 -6 -6 -7 -8 -8 -9 -9 -10 -10 -10 -10 -11 -11 -11 -11 -12 -12 -12
-3 -4 -4 -3 -3 -4 -10 -11 -5 -5 -7 -8 -7 -7 -5 -4 -7 -7 -9 -5 -5 -5 -4 -4 -4 -4 -4 -5 -5 -6 -6 -6 -6 -6 -6 -7 -8 -9 -9 -10 -10 -11 -11 -11 -11 -11 -12 -12 -12 -12 -12 -13 -13 -13
-5 -5 -5 -5 -5 -6 -9 -9 -8 -8 -8 -5 -6 -5 -5 -7 -6 -8 -6 -7 -7 -7 -6 -5 -5 -6 -7 -7 -7 -7 -7 -7 -7 -8 -8 -9 -10 -10 -11 -11 -11 -11 -12 -12 -13 -13 -13 -13 -13 -14 -14 -14 -14 -14
-8 -8 -5 -5 -4 -4 -4 -4 -4 -5 -5 -5 -8 -6 -6 -5 -6 -8 -8 -8 -8 -8 -8 -8 -8 -7 -8 -8 -9 -9 -9 -9 -9 -9 -10 -11 -12 -12 -13 -13 -13 -14 -14 -14 -14 -14 -14 -15 -15 -15 -15 -16 -15 -15
-4 -4 -7 -4 -4 -4 -4 -5 -5 -5 -4 -4 -5 -5 -5 -7 -8 -10 -10 -10 -9 -9 -9 -9 -10 -10 -10 -10 -10 -10 -11 -10 -11 -12 -12 -13 -13 -13 -13 -13 -14 -14 -14 -14 -15 -15 -16 -16 -17 -17 -18 -17 -17 -17
-5 -5 -5 -5 -4 -4 -5 -5 -4 -5 -5 -4 -5 -7 -10 -11 -11 -11 -11 -11 -11 -10 -10 -11 -11 -11 -11 -12 -12 -11 -11 -12 -12 -12 -12 -12 -12 -13 -13 -14 -14 -15 -15 -15 -15 -16 -16 -17 -18 -19 -19 -19 -18 -18
-5 -5 -5 -5 -6 -6 -6 -6 -5 -6 -5 -5 -6 -9 -11 -13 -13 -12 -12 -12 -12 -12 -12 -12 -12 -12 -13 -13 -12 -12 -12 -12 -12 -12 -13 -13 -14 -14 -14 -15 -15 -15 -15 -15 -16 -16 -16 -17 -17 -18 -18 -18 -19 -19
-5 -5 -4 -5 -6 -6 -6 -6 -6 -6 -6 -6 -7 -8 -12 -13 -14 -13 -13 -13 -13 -13 -14 -14 -13 -13 -13 -13 -13 -13 -14 -14 -14 -14 -15 -15 -15 -15 -15 -16 -16 -16 -16 -16 -17 -17 -18 -18 -18 -19 -19 -19 -19 -19
-5 -6 -6 -7 -6 -6 -7 -7 -7 -6 -6 -7 -8 -9 -12 -13 -14 -15 -15 -16 -15 -15 -14 -13 -13 -13 -13 -13 -13 -14 -14 -15 -15 -15 -16 -16 -16 -16 -16 -16 -17 -17 -17 -18 -18 -18 -19 -19 -19 -19 -19 -20 -20 -20
-7 -7 -7 -6 -6 -6 -7 -7 -7 -7 -7 -9 -10 -11 -12 -12 -14 -15 -15 -15 -15 -15 -14 -14 -14 -14 -14 -14 -14 -15 -15 -16 -16 -16 -17 -17 -17 -17 -17 -18 -18 -18 -18 -18 -19 -19 -19 -19 -20 -20 -20 -20 -20 -21